<?xml version="1.0" encoding="UTF-8" ?>
<gpx version="1.1" xmlns:xsi="http://www.w3.org/2001/XMLSchema-instance" 
    xmlns="http://www.topografix.com/GPX/1/1" 
    xsi:schemaLocation="http://www.topografix.com/GPX/1/1 http://www.topografix.com/GPX/1/1/gpx.xsd" 
    creator="Openrunner - https://www.openrunner.com" >	<trk>
						<name>Dame Blanche 60-19107589</name>
						<trkseg>
					<trkpt lat="48.884430" lon="2.269060">
						<ele>41</ele>
						<time>2024-05-30T11:54:29Z</time>
					</trkpt>
					<trkpt lat="48.884460" lon="2.268920">
						<ele>42</ele>
						<time>2024-05-30T11:54:31Z</time>
					</trkpt>
					<trkpt lat="48.884520" lon="2.268920">
						<ele>42</ele>
						<time>2024-05-30T11:54:32Z</time>
					</trkpt>
					<trkpt lat="48.884690" lon="2.268180">
						<ele>44</ele>
						<time>2024-05-30T11:54:41Z</time>
					</trkpt>
					<trkpt lat="48.884660" lon="2.268040">
						<ele>45</ele>
						<time>2024-05-30T11:54:43Z</time>
					</trkpt>
					<trkpt lat="48.884790" lon="2.267460">
						<ele>49</ele>
						<time>2024-05-30T11:54:50Z</time>
					</trkpt>
					<trkpt lat="48.884860" lon="2.267410">
						<ele>49</ele>
						<time>2024-05-30T11:54:51Z</time>
					</trkpt>
					<trkpt lat="48.885640" lon="2.264040">
						<ele>44</ele>
						<time>2024-05-30T11:55:33Z</time>
					</trkpt>
					<trkpt lat="48.885600" lon="2.263930">
						<ele>43</ele>
						<time>2024-05-30T11:55:35Z</time>
					</trkpt>
					<trkpt lat="48.885660" lon="2.263680">
						<ele>43</ele>
						<time>2024-05-30T11:55:38Z</time>
					</trkpt>
					<trkpt lat="48.885720" lon="2.263670">
						<ele>43</ele>
						<time>2024-05-30T11:55:39Z</time>
					</trkpt>
					<trkpt lat="48.885950" lon="2.262730">
						<ele>39</ele>
						<time>2024-05-30T11:55:50Z</time>
					</trkpt>
					<trkpt lat="48.885920" lon="2.262630">
						<ele>39</ele>
						<time>2024-05-30T11:55:52Z</time>
					</trkpt>
					<trkpt lat="48.886070" lon="2.262290">
						<ele>39</ele>
						<time>2024-05-30T11:55:56Z</time>
					</trkpt>
					<trkpt lat="48.886170" lon="2.262090">
						<ele>39</ele>
						<time>2024-05-30T11:55:59Z</time>
					</trkpt>
					<trkpt lat="48.886290" lon="2.261950">
						<ele>39</ele>
						<time>2024-05-30T11:56:02Z</time>
					</trkpt>
					<trkpt lat="48.886340" lon="2.261850">
						<ele>39</ele>
						<time>2024-05-30T11:56:04Z</time>
					</trkpt>
					<trkpt lat="48.886380" lon="2.261730">
						<ele>39</ele>
						<time>2024-05-30T11:56:05Z</time>
					</trkpt>
					<trkpt lat="48.886410" lon="2.261720">
						<ele>39</ele>
						<time>2024-05-30T11:56:06Z</time>
					</trkpt>
					<trkpt lat="48.886720" lon="2.262280">
						<ele>40</ele>
						<time>2024-05-30T11:56:14Z</time>
					</trkpt>
					<trkpt lat="48.887630" lon="2.263770">
						<ele>38</ele>
						<time>2024-05-30T11:56:38Z</time>
					</trkpt>
					<trkpt lat="48.888200" lon="2.264640">
						<ele>37</ele>
						<time>2024-05-30T11:56:52Z</time>
					</trkpt>
					<trkpt lat="48.890740" lon="2.270550">
						<ele>32</ele>
						<time>2024-05-30T11:58:15Z</time>
					</trkpt>
					<trkpt lat="48.890890" lon="2.270340">
						<ele>33</ele>
						<time>2024-05-30T11:58:19Z</time>
					</trkpt>
					<trkpt lat="48.891430" lon="2.269810">
						<ele>34</ele>
						<time>2024-05-30T11:58:30Z</time>
					</trkpt>
					<trkpt lat="48.892330" lon="2.268920">
						<ele>34</ele>
						<time>2024-05-30T11:58:49Z</time>
					</trkpt>
					<trkpt lat="48.893260" lon="2.267970">
						<ele>34</ele>
						<time>2024-05-30T11:59:09Z</time>
					</trkpt>
					<trkpt lat="48.893450" lon="2.267850">
						<ele>33</ele>
						<time>2024-05-30T11:59:13Z</time>
					</trkpt>
					<trkpt lat="48.893580" lon="2.267710">
						<ele>32</ele>
						<time>2024-05-30T11:59:16Z</time>
					</trkpt>
					<trkpt lat="48.893700" lon="2.267580">
						<ele>32</ele>
						<time>2024-05-30T11:59:18Z</time>
					</trkpt>
					<trkpt lat="48.893810" lon="2.267490">
						<ele>31</ele>
						<time>2024-05-30T11:59:20Z</time>
					</trkpt>
					<trkpt lat="48.894160" lon="2.267130">
						<ele>32</ele>
						<time>2024-05-30T11:59:28Z</time>
					</trkpt>
					<trkpt lat="48.894230" lon="2.267030">
						<ele>33</ele>
						<time>2024-05-30T11:59:30Z</time>
					</trkpt>
					<trkpt lat="48.894880" lon="2.266350">
						<ele>38</ele>
						<time>2024-05-30T11:59:44Z</time>
					</trkpt>
					<trkpt lat="48.895260" lon="2.265990">
						<ele>36</ele>
						<time>2024-05-30T11:59:52Z</time>
					</trkpt>
					<trkpt lat="48.895430" lon="2.265860">
						<ele>35</ele>
						<time>2024-05-30T11:59:55Z</time>
					</trkpt>
					<trkpt lat="48.896300" lon="2.264950">
						<ele>34</ele>
						<time>2024-05-30T12:00:14Z</time>
					</trkpt>
					<trkpt lat="48.896370" lon="2.264910">
						<ele>34</ele>
						<time>2024-05-30T12:00:15Z</time>
					</trkpt>
					<trkpt lat="48.896590" lon="2.264710">
						<ele>34</ele>
						<time>2024-05-30T12:00:20Z</time>
					</trkpt>
					<trkpt lat="48.896930" lon="2.264370">
						<ele>37</ele>
						<time>2024-05-30T12:00:27Z</time>
					</trkpt>
					<trkpt lat="48.897410" lon="2.263820">
						<ele>43</ele>
						<time>2024-05-30T12:00:38Z</time>
					</trkpt>
					<trkpt lat="48.897540" lon="2.263630">
						<ele>45</ele>
						<time>2024-05-30T12:00:41Z</time>
					</trkpt>
					<trkpt lat="48.900160" lon="2.261000">
						<ele>47</ele>
						<time>2024-05-30T12:01:37Z</time>
					</trkpt>
					<trkpt lat="48.900410" lon="2.260770">
						<ele>46</ele>
						<time>2024-05-30T12:01:42Z</time>
					</trkpt>
					<trkpt lat="48.900490" lon="2.260770">
						<ele>46</ele>
						<time>2024-05-30T12:01:43Z</time>
					</trkpt>
					<trkpt lat="48.900560" lon="2.260740">
						<ele>46</ele>
						<time>2024-05-30T12:01:45Z</time>
					</trkpt>
					<trkpt lat="48.901860" lon="2.259420">
						<ele>43</ele>
						<time>2024-05-30T12:02:12Z</time>
					</trkpt>
					<trkpt lat="48.902300" lon="2.259030">
						<ele>43</ele>
						<time>2024-05-30T12:02:22Z</time>
					</trkpt>
					<trkpt lat="48.902330" lon="2.258860">
						<ele>43</ele>
						<time>2024-05-30T12:02:24Z</time>
					</trkpt>
					<trkpt lat="48.904600" lon="2.256660">
						<ele>45</ele>
						<time>2024-05-30T12:03:12Z</time>
					</trkpt>
					<trkpt lat="48.904770" lon="2.256590">
						<ele>45</ele>
						<time>2024-05-30T12:03:15Z</time>
					</trkpt>
					<trkpt lat="48.905160" lon="2.256230">
						<ele>45</ele>
						<time>2024-05-30T12:03:23Z</time>
					</trkpt>
					<trkpt lat="48.905280" lon="2.256170">
						<ele>45</ele>
						<time>2024-05-30T12:03:25Z</time>
					</trkpt>
					<trkpt lat="48.905360" lon="2.256230">
						<ele>45</ele>
						<time>2024-05-30T12:03:27Z</time>
					</trkpt>
					<trkpt lat="48.905420" lon="2.256230">
						<ele>45</ele>
						<time>2024-05-30T12:03:28Z</time>
					</trkpt>
					<trkpt lat="48.905510" lon="2.256170">
						<ele>45</ele>
						<time>2024-05-30T12:03:29Z</time>
					</trkpt>
					<trkpt lat="48.905570" lon="2.256050">
						<ele>46</ele>
						<time>2024-05-30T12:03:31Z</time>
					</trkpt>
					<trkpt lat="48.905580" lon="2.255900">
						<ele>46</ele>
						<time>2024-05-30T12:03:33Z</time>
					</trkpt>
					<trkpt lat="48.905680" lon="2.255820">
						<ele>46</ele>
						<time>2024-05-30T12:03:35Z</time>
					</trkpt>
					<trkpt lat="48.905860" lon="2.255750">
						<ele>46</ele>
						<time>2024-05-30T12:03:38Z</time>
					</trkpt>
					<trkpt lat="48.906050" lon="2.255750">
						<ele>46</ele>
						<time>2024-05-30T12:03:42Z</time>
					</trkpt>
					<trkpt lat="48.907870" lon="2.255540">
						<ele>46</ele>
						<time>2024-05-30T12:04:14Z</time>
					</trkpt>
					<trkpt lat="48.908120" lon="2.255490">
						<ele>46</ele>
						<time>2024-05-30T12:04:19Z</time>
					</trkpt>
					<trkpt lat="48.911170" lon="2.254630">
						<ele>45</ele>
						<time>2024-05-30T12:05:14Z</time>
					</trkpt>
					<trkpt lat="48.911730" lon="2.254330">
						<ele>43</ele>
						<time>2024-05-30T12:05:24Z</time>
					</trkpt>
					<trkpt lat="48.913310" lon="2.253320">
						<ele>40</ele>
						<time>2024-05-30T12:05:55Z</time>
					</trkpt>
					<trkpt lat="48.913390" lon="2.253320">
						<ele>40</ele>
						<time>2024-05-30T12:05:56Z</time>
					</trkpt>
					<trkpt lat="48.913650" lon="2.253160">
						<ele>41</ele>
						<time>2024-05-30T12:06:01Z</time>
					</trkpt>
					<trkpt lat="48.913770" lon="2.253120">
						<ele>41</ele>
						<time>2024-05-30T12:06:03Z</time>
					</trkpt>
					<trkpt lat="48.913880" lon="2.253030">
						<ele>41</ele>
						<time>2024-05-30T12:06:06Z</time>
					</trkpt>
					<trkpt lat="48.914180" lon="2.252950">
						<ele>42</ele>
						<time>2024-05-30T12:06:11Z</time>
					</trkpt>
					<trkpt lat="48.914510" lon="2.252890">
						<ele>42</ele>
						<time>2024-05-30T12:06:17Z</time>
					</trkpt>
					<trkpt lat="48.915270" lon="2.252830">
						<ele>41</ele>
						<time>2024-05-30T12:06:31Z</time>
					</trkpt>
					<trkpt lat="48.915490" lon="2.252780">
						<ele>41</ele>
						<time>2024-05-30T12:06:34Z</time>
					</trkpt>
					<trkpt lat="48.915710" lon="2.252760">
						<ele>41</ele>
						<time>2024-05-30T12:06:38Z</time>
					</trkpt>
					<trkpt lat="48.915960" lon="2.252770">
						<ele>41</ele>
						<time>2024-05-30T12:06:43Z</time>
					</trkpt>
					<trkpt lat="48.918980" lon="2.252650">
						<ele>43</ele>
						<time>2024-05-30T12:07:37Z</time>
					</trkpt>
					<trkpt lat="48.919930" lon="2.252650">
						<ele>45</ele>
						<time>2024-05-30T12:07:54Z</time>
					</trkpt>
					<trkpt lat="48.920180" lon="2.252660">
						<ele>45</ele>
						<time>2024-05-30T12:07:58Z</time>
					</trkpt>
					<trkpt lat="48.920410" lon="2.252760">
						<ele>45</ele>
						<time>2024-05-30T12:08:02Z</time>
					</trkpt>
					<trkpt lat="48.920510" lon="2.252780">
						<ele>45</ele>
						<time>2024-05-30T12:08:04Z</time>
					</trkpt>
					<trkpt lat="48.920840" lon="2.252790">
						<ele>46</ele>
						<time>2024-05-30T12:08:10Z</time>
					</trkpt>
					<trkpt lat="48.920940" lon="2.252770">
						<ele>46</ele>
						<time>2024-05-30T12:08:12Z</time>
					</trkpt>
					<trkpt lat="48.921230" lon="2.252640">
						<ele>45</ele>
						<time>2024-05-30T12:08:17Z</time>
					</trkpt>
					<trkpt lat="48.922050" lon="2.252620">
						<ele>44</ele>
						<time>2024-05-30T12:08:32Z</time>
					</trkpt>
					<trkpt lat="48.922330" lon="2.252610">
						<ele>43</ele>
						<time>2024-05-30T12:08:37Z</time>
					</trkpt>
					<trkpt lat="48.922800" lon="2.252640">
						<ele>43</ele>
						<time>2024-05-30T12:08:45Z</time>
					</trkpt>
					<trkpt lat="48.922870" lon="2.252540">
						<ele>43</ele>
						<time>2024-05-30T12:08:47Z</time>
					</trkpt>
					<trkpt lat="48.923180" lon="2.252400">
						<ele>43</ele>
						<time>2024-05-30T12:08:52Z</time>
					</trkpt>
					<trkpt lat="48.923330" lon="2.252460">
						<ele>42</ele>
						<time>2024-05-30T12:08:55Z</time>
					</trkpt>
					<trkpt lat="48.923910" lon="2.252610">
						<ele>37</ele>
						<time>2024-05-30T12:09:06Z</time>
					</trkpt>
					<trkpt lat="48.924020" lon="2.252600">
						<ele>36</ele>
						<time>2024-05-30T12:09:08Z</time>
					</trkpt>
					<trkpt lat="48.924070" lon="2.252660">
						<ele>36</ele>
						<time>2024-05-30T12:09:09Z</time>
					</trkpt>
					<trkpt lat="48.924170" lon="2.252680">
						<ele>35</ele>
						<time>2024-05-30T12:09:11Z</time>
					</trkpt>
					<trkpt lat="48.924270" lon="2.252660">
						<ele>35</ele>
						<time>2024-05-30T12:09:12Z</time>
					</trkpt>
					<trkpt lat="48.924760" lon="2.252720">
						<ele>32</ele>
						<time>2024-05-30T12:09:21Z</time>
					</trkpt>
					<trkpt lat="48.925990" lon="2.252940">
						<ele>30</ele>
						<time>2024-05-30T12:09:43Z</time>
					</trkpt>
					<trkpt lat="48.927070" lon="2.253450">
						<ele>32</ele>
						<time>2024-05-30T12:10:03Z</time>
					</trkpt>
					<trkpt lat="48.927630" lon="2.253720">
						<ele>32</ele>
						<time>2024-05-30T12:10:14Z</time>
					</trkpt>
					<trkpt lat="48.929840" lon="2.254940">
						<ele>26</ele>
						<time>2024-05-30T12:10:56Z</time>
					</trkpt>
					<trkpt lat="48.930270" lon="2.255080">
						<ele>27</ele>
						<time>2024-05-30T12:11:03Z</time>
					</trkpt>
					<trkpt lat="48.930710" lon="2.255150">
						<ele>28</ele>
						<time>2024-05-30T12:11:11Z</time>
					</trkpt>
					<trkpt lat="48.932280" lon="2.255310">
						<ele>29</ele>
						<time>2024-05-30T12:11:39Z</time>
					</trkpt>
					<trkpt lat="48.932720" lon="2.255440">
						<ele>29</ele>
						<time>2024-05-30T12:11:47Z</time>
					</trkpt>
					<trkpt lat="48.933270" lon="2.255550">
						<ele>31</ele>
						<time>2024-05-30T12:11:57Z</time>
					</trkpt>
					<trkpt lat="48.933660" lon="2.255660">
						<ele>30</ele>
						<time>2024-05-30T12:12:04Z</time>
					</trkpt>
					<trkpt lat="48.933910" lon="2.255790">
						<ele>30</ele>
						<time>2024-05-30T12:12:09Z</time>
					</trkpt>
					<trkpt lat="48.934400" lon="2.256090">
						<ele>29</ele>
						<time>2024-05-30T12:12:18Z</time>
					</trkpt>
					<trkpt lat="48.934940" lon="2.256310">
						<ele>29</ele>
						<time>2024-05-30T12:12:28Z</time>
					</trkpt>
					<trkpt lat="48.935100" lon="2.256400">
						<ele>29</ele>
						<time>2024-05-30T12:12:31Z</time>
					</trkpt>
					<trkpt lat="48.935310" lon="2.256530">
						<ele>29</ele>
						<time>2024-05-30T12:12:35Z</time>
					</trkpt>
					<trkpt lat="48.936190" lon="2.257170">
						<ele>31</ele>
						<time>2024-05-30T12:12:53Z</time>
					</trkpt>
					<trkpt lat="48.936630" lon="2.257490">
						<ele>30</ele>
						<time>2024-05-30T12:13:01Z</time>
					</trkpt>
					<trkpt lat="48.937280" lon="2.257970">
						<ele>30</ele>
						<time>2024-05-30T12:13:14Z</time>
					</trkpt>
					<trkpt lat="48.937420" lon="2.258190">
						<ele>29</ele>
						<time>2024-05-30T12:13:18Z</time>
					</trkpt>
					<trkpt lat="48.937590" lon="2.258180">
						<ele>29</ele>
						<time>2024-05-30T12:13:21Z</time>
					</trkpt>
					<trkpt lat="48.939220" lon="2.256220">
						<ele>29</ele>
						<time>2024-05-30T12:13:58Z</time>
					</trkpt>
					<trkpt lat="48.939230" lon="2.256250">
						<ele>29</ele>
						<time>2024-05-30T12:13:58Z</time>
					</trkpt>
					<trkpt lat="48.939240" lon="2.256280">
						<ele>29</ele>
						<time>2024-05-30T12:13:59Z</time>
					</trkpt>
					<trkpt lat="48.939340" lon="2.256180">
						<ele>28</ele>
						<time>2024-05-30T12:14:01Z</time>
					</trkpt>
					<trkpt lat="48.940080" lon="2.255370">
						<ele>22</ele>
						<time>2024-05-30T12:14:17Z</time>
					</trkpt>
					<trkpt lat="48.941250" lon="2.254150">
						<ele>27</ele>
						<time>2024-05-30T12:14:42Z</time>
					</trkpt>
					<trkpt lat="48.941710" lon="2.253660">
						<ele>28</ele>
						<time>2024-05-30T12:14:52Z</time>
					</trkpt>
					<trkpt lat="48.941830" lon="2.253580">
						<ele>28</ele>
						<time>2024-05-30T12:14:54Z</time>
					</trkpt>
					<trkpt lat="48.941970" lon="2.253540">
						<ele>29</ele>
						<time>2024-05-30T12:14:57Z</time>
					</trkpt>
					<trkpt lat="48.942080" lon="2.253550">
						<ele>29</ele>
						<time>2024-05-30T12:14:59Z</time>
					</trkpt>
					<trkpt lat="48.942090" lon="2.253480">
						<ele>29</ele>
						<time>2024-05-30T12:15:00Z</time>
					</trkpt>
					<trkpt lat="48.942300" lon="2.253590">
						<ele>30</ele>
						<time>2024-05-30T12:15:04Z</time>
					</trkpt>
					<trkpt lat="48.943160" lon="2.255350">
						<ele>26</ele>
						<time>2024-05-30T12:15:29Z</time>
					</trkpt>
					<trkpt lat="48.943150" lon="2.255450">
						<ele>26</ele>
						<time>2024-05-30T12:15:31Z</time>
					</trkpt>
					<trkpt lat="48.943170" lon="2.255560">
						<ele>26</ele>
						<time>2024-05-30T12:15:32Z</time>
					</trkpt>
					<trkpt lat="48.943200" lon="2.255650">
						<ele>26</ele>
						<time>2024-05-30T12:15:33Z</time>
					</trkpt>
					<trkpt lat="48.943250" lon="2.255720">
						<ele>26</ele>
						<time>2024-05-30T12:15:34Z</time>
					</trkpt>
					<trkpt lat="48.943310" lon="2.255770">
						<ele>26</ele>
						<time>2024-05-30T12:15:35Z</time>
					</trkpt>
					<trkpt lat="48.943420" lon="2.255760">
						<ele>26</ele>
						<time>2024-05-30T12:15:37Z</time>
					</trkpt>
					<trkpt lat="48.943470" lon="2.255730">
						<ele>26</ele>
						<time>2024-05-30T12:15:38Z</time>
					</trkpt>
					<trkpt lat="48.943530" lon="2.255650">
						<ele>27</ele>
						<time>2024-05-30T12:15:40Z</time>
					</trkpt>
					<trkpt lat="48.943570" lon="2.255550">
						<ele>27</ele>
						<time>2024-05-30T12:15:41Z</time>
					</trkpt>
					<trkpt lat="48.943820" lon="2.255320">
						<ele>27</ele>
						<time>2024-05-30T12:15:46Z</time>
					</trkpt>
					<trkpt lat="48.944020" lon="2.255100">
						<ele>26</ele>
						<time>2024-05-30T12:15:51Z</time>
					</trkpt>
					<trkpt lat="48.944200" lon="2.254970">
						<ele>26</ele>
						<time>2024-05-30T12:15:54Z</time>
					</trkpt>
					<trkpt lat="48.944640" lon="2.254790">
						<ele>28</ele>
						<time>2024-05-30T12:16:02Z</time>
					</trkpt>
					<trkpt lat="48.945130" lon="2.254630">
						<ele>29</ele>
						<time>2024-05-30T12:16:11Z</time>
					</trkpt>
					<trkpt lat="48.946330" lon="2.254230">
						<ele>32</ele>
						<time>2024-05-30T12:16:33Z</time>
					</trkpt>
					<trkpt lat="48.946760" lon="2.254880">
						<ele>33</ele>
						<time>2024-05-30T12:16:44Z</time>
					</trkpt>
					<trkpt lat="48.947240" lon="2.255550">
						<ele>35</ele>
						<time>2024-05-30T12:16:56Z</time>
					</trkpt>
					<trkpt lat="48.947440" lon="2.255800">
						<ele>36</ele>
						<time>2024-05-30T12:17:00Z</time>
					</trkpt>
					<trkpt lat="48.947610" lon="2.255910">
						<ele>37</ele>
						<time>2024-05-30T12:17:03Z</time>
					</trkpt>
					<trkpt lat="48.947680" lon="2.255930">
						<ele>37</ele>
						<time>2024-05-30T12:17:05Z</time>
					</trkpt>
					<trkpt lat="48.947790" lon="2.255870">
						<ele>37</ele>
						<time>2024-05-30T12:17:07Z</time>
					</trkpt>
					<trkpt lat="48.948890" lon="2.253340">
						<ele>36</ele>
						<time>2024-05-30T12:17:42Z</time>
					</trkpt>
					<trkpt lat="48.948980" lon="2.253500">
						<ele>36</ele>
						<time>2024-05-30T12:17:45Z</time>
					</trkpt>
					<trkpt lat="48.949080" lon="2.253530">
						<ele>36</ele>
						<time>2024-05-30T12:17:46Z</time>
					</trkpt>
					<trkpt lat="48.949560" lon="2.253560">
						<ele>37</ele>
						<time>2024-05-30T12:17:55Z</time>
					</trkpt>
					<trkpt lat="48.952080" lon="2.253830">
						<ele>41</ele>
						<time>2024-05-30T12:18:40Z</time>
					</trkpt>
					<trkpt lat="48.952640" lon="2.253960">
						<ele>41</ele>
						<time>2024-05-30T12:18:50Z</time>
					</trkpt>
					<trkpt lat="48.952870" lon="2.254030">
						<ele>42</ele>
						<time>2024-05-30T12:18:54Z</time>
					</trkpt>
					<trkpt lat="48.953180" lon="2.254170">
						<ele>42</ele>
						<time>2024-05-30T12:19:00Z</time>
					</trkpt>
					<trkpt lat="48.953490" lon="2.254310">
						<ele>44</ele>
						<time>2024-05-30T12:19:06Z</time>
					</trkpt>
					<trkpt lat="48.953760" lon="2.254370">
						<ele>44</ele>
						<time>2024-05-30T12:19:11Z</time>
					</trkpt>
					<trkpt lat="48.958490" lon="2.257300">
						<ele>54</ele>
						<time>2024-05-30T12:20:41Z</time>
					</trkpt>
					<trkpt lat="48.958600" lon="2.257350">
						<ele>54</ele>
						<time>2024-05-30T12:20:44Z</time>
					</trkpt>
					<trkpt lat="48.959520" lon="2.257950">
						<ele>57</ele>
						<time>2024-05-30T12:21:01Z</time>
					</trkpt>
					<trkpt lat="48.959660" lon="2.258040">
						<ele>57</ele>
						<time>2024-05-30T12:21:04Z</time>
					</trkpt>
					<trkpt lat="48.959840" lon="2.258220">
						<ele>58</ele>
						<time>2024-05-30T12:21:08Z</time>
					</trkpt>
					<trkpt lat="48.960000" lon="2.258450">
						<ele>58</ele>
						<time>2024-05-30T12:21:12Z</time>
					</trkpt>
					<trkpt lat="48.960010" lon="2.258550">
						<ele>57</ele>
						<time>2024-05-30T12:21:13Z</time>
					</trkpt>
					<trkpt lat="48.960030" lon="2.258630">
						<ele>57</ele>
						<time>2024-05-30T12:21:14Z</time>
					</trkpt>
					<trkpt lat="48.960080" lon="2.258690">
						<ele>57</ele>
						<time>2024-05-30T12:21:15Z</time>
					</trkpt>
					<trkpt lat="48.960190" lon="2.258730">
						<ele>57</ele>
						<time>2024-05-30T12:21:17Z</time>
					</trkpt>
					<trkpt lat="48.960270" lon="2.258690">
						<ele>57</ele>
						<time>2024-05-30T12:21:19Z</time>
					</trkpt>
					<trkpt lat="48.960320" lon="2.258610">
						<ele>57</ele>
						<time>2024-05-30T12:21:20Z</time>
					</trkpt>
					<trkpt lat="48.960410" lon="2.258630">
						<ele>57</ele>
						<time>2024-05-30T12:21:21Z</time>
					</trkpt>
					<trkpt lat="48.960510" lon="2.258690">
						<ele>57</ele>
						<time>2024-05-30T12:21:23Z</time>
					</trkpt>
					<trkpt lat="48.960810" lon="2.258980">
						<ele>57</ele>
						<time>2024-05-30T12:21:30Z</time>
					</trkpt>
					<trkpt lat="48.961520" lon="2.259440">
						<ele>59</ele>
						<time>2024-05-30T12:21:43Z</time>
					</trkpt>
					<trkpt lat="48.962220" lon="2.259790">
						<ele>61</ele>
						<time>2024-05-30T12:21:57Z</time>
					</trkpt>
					<trkpt lat="48.963680" lon="2.260670">
						<ele>61</ele>
						<time>2024-05-30T12:22:25Z</time>
					</trkpt>
					<trkpt lat="48.963760" lon="2.260750">
						<ele>61</ele>
						<time>2024-05-30T12:22:26Z</time>
					</trkpt>
					<trkpt lat="48.964170" lon="2.261000">
						<ele>61</ele>
						<time>2024-05-30T12:22:34Z</time>
					</trkpt>
					<trkpt lat="48.964240" lon="2.261020">
						<ele>61</ele>
						<time>2024-05-30T12:22:35Z</time>
					</trkpt>
					<trkpt lat="48.965160" lon="2.261500">
						<ele>62</ele>
						<time>2024-05-30T12:22:53Z</time>
					</trkpt>
					<trkpt lat="48.965380" lon="2.261590">
						<ele>61</ele>
						<time>2024-05-30T12:22:57Z</time>
					</trkpt>
					<trkpt lat="48.965410" lon="2.261650">
						<ele>61</ele>
						<time>2024-05-30T12:22:58Z</time>
					</trkpt>
					<trkpt lat="48.965430" lon="2.261660">
						<ele>61</ele>
						<time>2024-05-30T12:22:58Z</time>
					</trkpt>
					<trkpt lat="48.965460" lon="2.261670">
						<ele>61</ele>
						<time>2024-05-30T12:22:58Z</time>
					</trkpt>
					<trkpt lat="48.965500" lon="2.261640">
						<ele>61</ele>
						<time>2024-05-30T12:22:59Z</time>
					</trkpt>
					<trkpt lat="48.965600" lon="2.261650">
						<ele>61</ele>
						<time>2024-05-30T12:23:01Z</time>
					</trkpt>
					<trkpt lat="48.966100" lon="2.261830">
						<ele>60</ele>
						<time>2024-05-30T12:23:10Z</time>
					</trkpt>
					<trkpt lat="48.966200" lon="2.261830">
						<ele>60</ele>
						<time>2024-05-30T12:23:12Z</time>
					</trkpt>
					<trkpt lat="48.966350" lon="2.261900">
						<ele>60</ele>
						<time>2024-05-30T12:23:15Z</time>
					</trkpt>
					<trkpt lat="48.966170" lon="2.262940">
						<ele>58</ele>
						<time>2024-05-30T12:23:27Z</time>
					</trkpt>
					<trkpt lat="48.966100" lon="2.263210">
						<ele>57</ele>
						<time>2024-05-30T12:23:31Z</time>
					</trkpt>
					<trkpt lat="48.966030" lon="2.263570">
						<ele>57</ele>
						<time>2024-05-30T12:23:35Z</time>
					</trkpt>
					<trkpt lat="48.966030" lon="2.264000">
						<ele>56</ele>
						<time>2024-05-30T12:23:40Z</time>
					</trkpt>
					<trkpt lat="48.966050" lon="2.264170">
						<ele>56</ele>
						<time>2024-05-30T12:23:42Z</time>
					</trkpt>
					<trkpt lat="48.966100" lon="2.264320">
						<ele>55</ele>
						<time>2024-05-30T12:23:44Z</time>
					</trkpt>
					<trkpt lat="48.966110" lon="2.264460">
						<ele>55</ele>
						<time>2024-05-30T12:23:46Z</time>
					</trkpt>
					<trkpt lat="48.966170" lon="2.264540">
						<ele>55</ele>
						<time>2024-05-30T12:23:47Z</time>
					</trkpt>
					<trkpt lat="48.966210" lon="2.264550">
						<ele>55</ele>
						<time>2024-05-30T12:23:48Z</time>
					</trkpt>
					<trkpt lat="48.966270" lon="2.264520">
						<ele>55</ele>
						<time>2024-05-30T12:23:49Z</time>
					</trkpt>
					<trkpt lat="48.966310" lon="2.264450">
						<ele>55</ele>
						<time>2024-05-30T12:23:50Z</time>
					</trkpt>
					<trkpt lat="48.966430" lon="2.264380">
						<ele>55</ele>
						<time>2024-05-30T12:23:52Z</time>
					</trkpt>
					<trkpt lat="48.966760" lon="2.264300">
						<ele>55</ele>
						<time>2024-05-30T12:23:58Z</time>
					</trkpt>
					<trkpt lat="48.966990" lon="2.264290">
						<ele>55</ele>
						<time>2024-05-30T12:24:02Z</time>
					</trkpt>
					<trkpt lat="48.967440" lon="2.264390">
						<ele>54</ele>
						<time>2024-05-30T12:24:11Z</time>
					</trkpt>
					<trkpt lat="48.967710" lon="2.264400">
						<ele>54</ele>
						<time>2024-05-30T12:24:15Z</time>
					</trkpt>
					<trkpt lat="48.967880" lon="2.264470">
						<ele>54</ele>
						<time>2024-05-30T12:24:18Z</time>
					</trkpt>
					<trkpt lat="48.968620" lon="2.264610">
						<ele>54</ele>
						<time>2024-05-30T12:24:32Z</time>
					</trkpt>
					<trkpt lat="48.968840" lon="2.264620">
						<ele>54</ele>
						<time>2024-05-30T12:24:36Z</time>
					</trkpt>
					<trkpt lat="48.969130" lon="2.264590">
						<ele>54</ele>
						<time>2024-05-30T12:24:41Z</time>
					</trkpt>
					<trkpt lat="48.969240" lon="2.264650">
						<ele>54</ele>
						<time>2024-05-30T12:24:43Z</time>
					</trkpt>
					<trkpt lat="48.969260" lon="2.264600">
						<ele>54</ele>
						<time>2024-05-30T12:24:44Z</time>
					</trkpt>
					<trkpt lat="48.969380" lon="2.264510">
						<ele>54</ele>
						<time>2024-05-30T12:24:46Z</time>
					</trkpt>
					<trkpt lat="48.970890" lon="2.264180">
						<ele>53</ele>
						<time>2024-05-30T12:25:13Z</time>
					</trkpt>
					<trkpt lat="48.971760" lon="2.264020">
						<ele>54</ele>
						<time>2024-05-30T12:25:29Z</time>
					</trkpt>
					<trkpt lat="48.971860" lon="2.264050">
						<ele>53</ele>
						<time>2024-05-30T12:25:31Z</time>
					</trkpt>
					<trkpt lat="48.973050" lon="2.264710">
						<ele>50</ele>
						<time>2024-05-30T12:25:53Z</time>
					</trkpt>
					<trkpt lat="48.975210" lon="2.265920">
						<ele>48</ele>
						<time>2024-05-30T12:26:34Z</time>
					</trkpt>
					<trkpt lat="48.975900" lon="2.266410">
						<ele>48</ele>
						<time>2024-05-30T12:26:48Z</time>
					</trkpt>
					<trkpt lat="48.976640" lon="2.266980">
						<ele>47</ele>
						<time>2024-05-30T12:27:02Z</time>
					</trkpt>
					<trkpt lat="48.976680" lon="2.267220">
						<ele>47</ele>
						<time>2024-05-30T12:27:05Z</time>
					</trkpt>
					<trkpt lat="48.976660" lon="2.267330">
						<ele>47</ele>
						<time>2024-05-30T12:27:07Z</time>
					</trkpt>
					<trkpt lat="48.976670" lon="2.267380">
						<ele>47</ele>
						<time>2024-05-30T12:27:07Z</time>
					</trkpt>
					<trkpt lat="48.976730" lon="2.267460">
						<ele>47</ele>
						<time>2024-05-30T12:27:09Z</time>
					</trkpt>
					<trkpt lat="48.976750" lon="2.267810">
						<ele>47</ele>
						<time>2024-05-30T12:27:13Z</time>
					</trkpt>
					<trkpt lat="48.976810" lon="2.268130">
						<ele>48</ele>
						<time>2024-05-30T12:27:17Z</time>
					</trkpt>
					<trkpt lat="48.976860" lon="2.268330">
						<ele>48</ele>
						<time>2024-05-30T12:27:19Z</time>
					</trkpt>
					<trkpt lat="48.976930" lon="2.268740">
						<ele>48</ele>
						<time>2024-05-30T12:27:24Z</time>
					</trkpt>
					<trkpt lat="48.976940" lon="2.268960">
						<ele>47</ele>
						<time>2024-05-30T12:27:27Z</time>
					</trkpt>
					<trkpt lat="48.977040" lon="2.269390">
						<ele>47</ele>
						<time>2024-05-30T12:27:32Z</time>
					</trkpt>
					<trkpt lat="48.977160" lon="2.270290">
						<ele>46</ele>
						<time>2024-05-30T12:27:43Z</time>
					</trkpt>
					<trkpt lat="48.977260" lon="2.270770">
						<ele>45</ele>
						<time>2024-05-30T12:27:49Z</time>
					</trkpt>
					<trkpt lat="48.977250" lon="2.270900">
						<ele>45</ele>
						<time>2024-05-30T12:27:50Z</time>
					</trkpt>
					<trkpt lat="48.977210" lon="2.271090">
						<ele>45</ele>
						<time>2024-05-30T12:27:52Z</time>
					</trkpt>
					<trkpt lat="48.977150" lon="2.271180">
						<ele>45</ele>
						<time>2024-05-30T12:27:54Z</time>
					</trkpt>
					<trkpt lat="48.977150" lon="2.271310">
						<ele>45</ele>
						<time>2024-05-30T12:27:55Z</time>
					</trkpt>
					<trkpt lat="48.977190" lon="2.271380">
						<ele>45</ele>
						<time>2024-05-30T12:27:56Z</time>
					</trkpt>
					<trkpt lat="48.977260" lon="2.271400">
						<ele>45</ele>
						<time>2024-05-30T12:27:58Z</time>
					</trkpt>
					<trkpt lat="48.977310" lon="2.271370">
						<ele>45</ele>
						<time>2024-05-30T12:27:59Z</time>
					</trkpt>
					<trkpt lat="48.977480" lon="2.271380">
						<ele>45</ele>
						<time>2024-05-30T12:28:02Z</time>
					</trkpt>
					<trkpt lat="48.977620" lon="2.271350">
						<ele>45</ele>
						<time>2024-05-30T12:28:04Z</time>
					</trkpt>
					<trkpt lat="48.978430" lon="2.270980">
						<ele>46</ele>
						<time>2024-05-30T12:28:19Z</time>
					</trkpt>
					<trkpt lat="48.978900" lon="2.270810">
						<ele>45</ele>
						<time>2024-05-30T12:28:28Z</time>
					</trkpt>
					<trkpt lat="48.979650" lon="2.270410">
						<ele>46</ele>
						<time>2024-05-30T12:28:42Z</time>
					</trkpt>
					<trkpt lat="48.979880" lon="2.270390">
						<ele>46</ele>
						<time>2024-05-30T12:28:46Z</time>
					</trkpt>
					<trkpt lat="48.979880" lon="2.270430">
						<ele>46</ele>
						<time>2024-05-30T12:28:47Z</time>
					</trkpt>
					<trkpt lat="48.979930" lon="2.270500">
						<ele>45</ele>
						<time>2024-05-30T12:28:48Z</time>
					</trkpt>
					<trkpt lat="48.980130" lon="2.270520">
						<ele>46</ele>
						<time>2024-05-30T12:28:51Z</time>
					</trkpt>
					<trkpt lat="48.980170" lon="2.270500">
						<ele>46</ele>
						<time>2024-05-30T12:28:52Z</time>
					</trkpt>
					<trkpt lat="48.980190" lon="2.270460">
						<ele>46</ele>
						<time>2024-05-30T12:28:53Z</time>
					</trkpt>
					<trkpt lat="48.980270" lon="2.270450">
						<ele>46</ele>
						<time>2024-05-30T12:28:54Z</time>
					</trkpt>
					<trkpt lat="48.980560" lon="2.270470">
						<ele>46</ele>
						<time>2024-05-30T12:28:59Z</time>
					</trkpt>
					<trkpt lat="48.980990" lon="2.270610">
						<ele>47</ele>
						<time>2024-05-30T12:29:07Z</time>
					</trkpt>
					<trkpt lat="48.981350" lon="2.270830">
						<ele>48</ele>
						<time>2024-05-30T12:29:14Z</time>
					</trkpt>
					<trkpt lat="48.981700" lon="2.271020">
						<ele>49</ele>
						<time>2024-05-30T12:29:21Z</time>
					</trkpt>
					<trkpt lat="48.982330" lon="2.271450">
						<ele>52</ele>
						<time>2024-05-30T12:29:33Z</time>
					</trkpt>
					<trkpt lat="48.982870" lon="2.271760">
						<ele>54</ele>
						<time>2024-05-30T12:29:43Z</time>
					</trkpt>
					<trkpt lat="48.984230" lon="2.272280">
						<ele>58</ele>
						<time>2024-05-30T12:30:08Z</time>
					</trkpt>
					<trkpt lat="48.984660" lon="2.272410">
						<ele>58</ele>
						<time>2024-05-30T12:30:16Z</time>
					</trkpt>
					<trkpt lat="48.990240" lon="2.274840">
						<ele>53</ele>
						<time>2024-05-30T12:31:59Z</time>
					</trkpt>
					<trkpt lat="48.990840" lon="2.275030">
						<ele>53</ele>
						<time>2024-05-30T12:32:10Z</time>
					</trkpt>
					<trkpt lat="48.991030" lon="2.275030">
						<ele>53</ele>
						<time>2024-05-30T12:32:13Z</time>
					</trkpt>
					<trkpt lat="48.991340" lon="2.274920">
						<ele>53</ele>
						<time>2024-05-30T12:32:19Z</time>
					</trkpt>
					<trkpt lat="48.991380" lon="2.275050">
						<ele>53</ele>
						<time>2024-05-30T12:32:21Z</time>
					</trkpt>
					<trkpt lat="48.991450" lon="2.275120">
						<ele>53</ele>
						<time>2024-05-30T12:32:22Z</time>
					</trkpt>
					<trkpt lat="48.991540" lon="2.275130">
						<ele>53</ele>
						<time>2024-05-30T12:32:24Z</time>
					</trkpt>
					<trkpt lat="48.991600" lon="2.275080">
						<ele>53</ele>
						<time>2024-05-30T12:32:25Z</time>
					</trkpt>
					<trkpt lat="48.991650" lon="2.274950">
						<ele>53</ele>
						<time>2024-05-30T12:32:27Z</time>
					</trkpt>
					<trkpt lat="48.991650" lon="2.274880">
						<ele>53</ele>
						<time>2024-05-30T12:32:28Z</time>
					</trkpt>
					<trkpt lat="48.991890" lon="2.274750">
						<ele>53</ele>
						<time>2024-05-30T12:32:32Z</time>
					</trkpt>
					<trkpt lat="48.993150" lon="2.274680">
						<ele>49</ele>
						<time>2024-05-30T12:32:55Z</time>
					</trkpt>
					<trkpt lat="48.993470" lon="2.274700">
						<ele>49</ele>
						<time>2024-05-30T12:33:00Z</time>
					</trkpt>
					<trkpt lat="48.993510" lon="2.274770">
						<ele>49</ele>
						<time>2024-05-30T12:33:01Z</time>
					</trkpt>
					<trkpt lat="48.993560" lon="2.274800">
						<ele>49</ele>
						<time>2024-05-30T12:33:02Z</time>
					</trkpt>
					<trkpt lat="48.993620" lon="2.274790">
						<ele>49</ele>
						<time>2024-05-30T12:33:03Z</time>
					</trkpt>
					<trkpt lat="48.993670" lon="2.274730">
						<ele>50</ele>
						<time>2024-05-30T12:33:05Z</time>
					</trkpt>
					<trkpt lat="48.993870" lon="2.274800">
						<ele>50</ele>
						<time>2024-05-30T12:33:08Z</time>
					</trkpt>
					<trkpt lat="48.994500" lon="2.275250">
						<ele>53</ele>
						<time>2024-05-30T12:33:21Z</time>
					</trkpt>
					<trkpt lat="48.994670" lon="2.275420">
						<ele>54</ele>
						<time>2024-05-30T12:33:24Z</time>
					</trkpt>
					<trkpt lat="48.994670" lon="2.275530">
						<ele>54</ele>
						<time>2024-05-30T12:33:26Z</time>
					</trkpt>
					<trkpt lat="48.994690" lon="2.275600">
						<ele>54</ele>
						<time>2024-05-30T12:33:26Z</time>
					</trkpt>
					<trkpt lat="48.994740" lon="2.275660">
						<ele>55</ele>
						<time>2024-05-30T12:33:28Z</time>
					</trkpt>
					<trkpt lat="48.994960" lon="2.275800">
						<ele>56</ele>
						<time>2024-05-30T12:33:32Z</time>
					</trkpt>
					<trkpt lat="48.995060" lon="2.275750">
						<ele>56</ele>
						<time>2024-05-30T12:33:34Z</time>
					</trkpt>
					<trkpt lat="48.995160" lon="2.275780">
						<ele>57</ele>
						<time>2024-05-30T12:33:35Z</time>
					</trkpt>
					<trkpt lat="48.995190" lon="2.275760">
						<ele>57</ele>
						<time>2024-05-30T12:33:36Z</time>
					</trkpt>
					<trkpt lat="48.995630" lon="2.276110">
						<ele>58</ele>
						<time>2024-05-30T12:33:45Z</time>
					</trkpt>
					<trkpt lat="48.996080" lon="2.276380">
						<ele>59</ele>
						<time>2024-05-30T12:33:53Z</time>
					</trkpt>
					<trkpt lat="48.997320" lon="2.276960">
						<ele>59</ele>
						<time>2024-05-30T12:34:17Z</time>
					</trkpt>
					<trkpt lat="48.997540" lon="2.277050">
						<ele>59</ele>
						<time>2024-05-30T12:34:21Z</time>
					</trkpt>
					<trkpt lat="48.998300" lon="2.277230">
						<ele>60</ele>
						<time>2024-05-30T12:34:34Z</time>
					</trkpt>
					<trkpt lat="48.999350" lon="2.277610">
						<ele>58</ele>
						<time>2024-05-30T12:34:54Z</time>
					</trkpt>
					<trkpt lat="48.999820" lon="2.277850">
						<ele>58</ele>
						<time>2024-05-30T12:35:02Z</time>
					</trkpt>
					<trkpt lat="49.000030" lon="2.278000">
						<ele>58</ele>
						<time>2024-05-30T12:35:06Z</time>
					</trkpt>
					<trkpt lat="49.000540" lon="2.278510">
						<ele>59</ele>
						<time>2024-05-30T12:35:17Z</time>
					</trkpt>
					<trkpt lat="49.001050" lon="2.279050">
						<ele>61</ele>
						<time>2024-05-30T12:35:28Z</time>
					</trkpt>
					<trkpt lat="49.002900" lon="2.280600">
						<ele>67</ele>
						<time>2024-05-30T12:36:06Z</time>
					</trkpt>
					<trkpt lat="49.003230" lon="2.280920">
						<ele>65</ele>
						<time>2024-05-30T12:36:13Z</time>
					</trkpt>
					<trkpt lat="49.003340" lon="2.281080">
						<ele>64</ele>
						<time>2024-05-30T12:36:16Z</time>
					</trkpt>
					<trkpt lat="49.003380" lon="2.281230">
						<ele>64</ele>
						<time>2024-05-30T12:36:17Z</time>
					</trkpt>
					<trkpt lat="49.003380" lon="2.281340">
						<ele>64</ele>
						<time>2024-05-30T12:36:19Z</time>
					</trkpt>
					<trkpt lat="49.003420" lon="2.281430">
						<ele>64</ele>
						<time>2024-05-30T12:36:20Z</time>
					</trkpt>
					<trkpt lat="49.003480" lon="2.281480">
						<ele>64</ele>
						<time>2024-05-30T12:36:21Z</time>
					</trkpt>
					<trkpt lat="49.003550" lon="2.281480">
						<ele>64</ele>
						<time>2024-05-30T12:36:22Z</time>
					</trkpt>
					<trkpt lat="49.003600" lon="2.281430">
						<ele>64</ele>
						<time>2024-05-30T12:36:24Z</time>
					</trkpt>
					<trkpt lat="49.003710" lon="2.281410">
						<ele>65</ele>
						<time>2024-05-30T12:36:26Z</time>
					</trkpt>
					<trkpt lat="49.003830" lon="2.281440">
						<ele>65</ele>
						<time>2024-05-30T12:36:28Z</time>
					</trkpt>
					<trkpt lat="49.004200" lon="2.281680">
						<ele>66</ele>
						<time>2024-05-30T12:36:35Z</time>
					</trkpt>
					<trkpt lat="49.004300" lon="2.281790">
						<ele>66</ele>
						<time>2024-05-30T12:36:37Z</time>
					</trkpt>
					<trkpt lat="49.005300" lon="2.282530">
						<ele>67</ele>
						<time>2024-05-30T12:36:57Z</time>
					</trkpt>
					<trkpt lat="49.005930" lon="2.282950">
						<ele>68</ele>
						<time>2024-05-30T12:37:09Z</time>
					</trkpt>
					<trkpt lat="49.006200" lon="2.283160">
						<ele>68</ele>
						<time>2024-05-30T12:37:14Z</time>
					</trkpt>
					<trkpt lat="49.006310" lon="2.283330">
						<ele>68</ele>
						<time>2024-05-30T12:37:17Z</time>
					</trkpt>
					<trkpt lat="49.006560" lon="2.284120">
						<ele>68</ele>
						<time>2024-05-30T12:37:27Z</time>
					</trkpt>
					<trkpt lat="49.006620" lon="2.284240">
						<ele>68</ele>
						<time>2024-05-30T12:37:29Z</time>
					</trkpt>
					<trkpt lat="49.006670" lon="2.284290">
						<ele>68</ele>
						<time>2024-05-30T12:37:30Z</time>
					</trkpt>
					<trkpt lat="49.007770" lon="2.284610">
						<ele>71</ele>
						<time>2024-05-30T12:37:50Z</time>
					</trkpt>
					<trkpt lat="49.008000" lon="2.284660">
						<ele>71</ele>
						<time>2024-05-30T12:37:54Z</time>
					</trkpt>
					<trkpt lat="49.008530" lon="2.284660">
						<ele>72</ele>
						<time>2024-05-30T12:38:04Z</time>
					</trkpt>
					<trkpt lat="49.008930" lon="2.284720">
						<ele>73</ele>
						<time>2024-05-30T12:38:11Z</time>
					</trkpt>
					<trkpt lat="49.009000" lon="2.284750">
						<ele>73</ele>
						<time>2024-05-30T12:38:12Z</time>
					</trkpt>
					<trkpt lat="49.010240" lon="2.285150">
						<ele>78</ele>
						<time>2024-05-30T12:38:35Z</time>
					</trkpt>
					<trkpt lat="49.010590" lon="2.285220">
						<ele>78</ele>
						<time>2024-05-30T12:38:41Z</time>
					</trkpt>
					<trkpt lat="49.010870" lon="2.285390">
						<ele>78</ele>
						<time>2024-05-30T12:38:46Z</time>
					</trkpt>
					<trkpt lat="49.011260" lon="2.285560">
						<ele>79</ele>
						<time>2024-05-30T12:38:54Z</time>
					</trkpt>
					<trkpt lat="49.011650" lon="2.285700">
						<ele>80</ele>
						<time>2024-05-30T12:39:01Z</time>
					</trkpt>
					<trkpt lat="49.012210" lon="2.285850">
						<ele>81</ele>
						<time>2024-05-30T12:39:11Z</time>
					</trkpt>
					<trkpt lat="49.012790" lon="2.286130">
						<ele>81</ele>
						<time>2024-05-30T12:39:22Z</time>
					</trkpt>
					<trkpt lat="49.013310" lon="2.286300">
						<ele>80</ele>
						<time>2024-05-30T12:39:31Z</time>
					</trkpt>
					<trkpt lat="49.013690" lon="2.286370">
						<ele>80</ele>
						<time>2024-05-30T12:39:38Z</time>
					</trkpt>
					<trkpt lat="49.013860" lon="2.286430">
						<ele>80</ele>
						<time>2024-05-30T12:39:41Z</time>
					</trkpt>
					<trkpt lat="49.014000" lon="2.286520">
						<ele>80</ele>
						<time>2024-05-30T12:39:44Z</time>
					</trkpt>
					<trkpt lat="49.014110" lon="2.286620">
						<ele>79</ele>
						<time>2024-05-30T12:39:46Z</time>
					</trkpt>
					<trkpt lat="49.014110" lon="2.286740">
						<ele>79</ele>
						<time>2024-05-30T12:39:47Z</time>
					</trkpt>
					<trkpt lat="49.014140" lon="2.286790">
						<ele>79</ele>
						<time>2024-05-30T12:39:48Z</time>
					</trkpt>
					<trkpt lat="49.014200" lon="2.286820">
						<ele>79</ele>
						<time>2024-05-30T12:39:49Z</time>
					</trkpt>
					<trkpt lat="49.014360" lon="2.286990">
						<ele>80</ele>
						<time>2024-05-30T12:39:53Z</time>
					</trkpt>
					<trkpt lat="49.015120" lon="2.287930">
						<ele>82</ele>
						<time>2024-05-30T12:40:10Z</time>
					</trkpt>
					<trkpt lat="49.015430" lon="2.288210">
						<ele>84</ele>
						<time>2024-05-30T12:40:17Z</time>
					</trkpt>
					<trkpt lat="49.016420" lon="2.288900">
						<ele>86</ele>
						<time>2024-05-30T12:40:36Z</time>
					</trkpt>
					<trkpt lat="49.016850" lon="2.289110">
						<ele>86</ele>
						<time>2024-05-30T12:40:44Z</time>
					</trkpt>
					<trkpt lat="49.017440" lon="2.289350">
						<ele>87</ele>
						<time>2024-05-30T12:40:55Z</time>
					</trkpt>
					<trkpt lat="49.017570" lon="2.289430">
						<ele>87</ele>
						<time>2024-05-30T12:40:57Z</time>
					</trkpt>
					<trkpt lat="49.017730" lon="2.289600">
						<ele>87</ele>
						<time>2024-05-30T12:41:01Z</time>
					</trkpt>
					<trkpt lat="49.018180" lon="2.290360">
						<ele>89</ele>
						<time>2024-05-30T12:41:13Z</time>
					</trkpt>
					<trkpt lat="49.018520" lon="2.290820">
						<ele>91</ele>
						<time>2024-05-30T12:41:21Z</time>
					</trkpt>
					<trkpt lat="49.018790" lon="2.291080">
						<ele>94</ele>
						<time>2024-05-30T12:41:27Z</time>
					</trkpt>
					<trkpt lat="49.019110" lon="2.291340">
						<ele>95</ele>
						<time>2024-05-30T12:41:33Z</time>
					</trkpt>
					<trkpt lat="49.019950" lon="2.291800">
						<ele>97</ele>
						<time>2024-05-30T12:41:49Z</time>
					</trkpt>
					<trkpt lat="49.020510" lon="2.291950">
						<ele>99</ele>
						<time>2024-05-30T12:41:59Z</time>
					</trkpt>
					<trkpt lat="49.020720" lon="2.292060">
						<ele>99</ele>
						<time>2024-05-30T12:42:03Z</time>
					</trkpt>
					<trkpt lat="49.020890" lon="2.292250">
						<ele>100</ele>
						<time>2024-05-30T12:42:07Z</time>
					</trkpt>
					<trkpt lat="49.021070" lon="2.292550">
						<ele>100</ele>
						<time>2024-05-30T12:42:12Z</time>
					</trkpt>
					<trkpt lat="49.021140" lon="2.292740">
						<ele>100</ele>
						<time>2024-05-30T12:42:14Z</time>
					</trkpt>
					<trkpt lat="49.021390" lon="2.293550">
						<ele>100</ele>
						<time>2024-05-30T12:42:25Z</time>
					</trkpt>
					<trkpt lat="49.021500" lon="2.293800">
						<ele>101</ele>
						<time>2024-05-30T12:42:28Z</time>
					</trkpt>
					<trkpt lat="49.021640" lon="2.294000">
						<ele>101</ele>
						<time>2024-05-30T12:42:31Z</time>
					</trkpt>
					<trkpt lat="49.022020" lon="2.294420">
						<ele>102</ele>
						<time>2024-05-30T12:42:40Z</time>
					</trkpt>
					<trkpt lat="49.022620" lon="2.295060">
						<ele>103</ele>
						<time>2024-05-30T12:42:53Z</time>
					</trkpt>
					<trkpt lat="49.024360" lon="2.296550">
						<ele>101</ele>
						<time>2024-05-30T12:43:28Z</time>
					</trkpt>
					<trkpt lat="49.024580" lon="2.296790">
						<ele>102</ele>
						<time>2024-05-30T12:43:33Z</time>
					</trkpt>
					<trkpt lat="49.024850" lon="2.297170">
						<ele>103</ele>
						<time>2024-05-30T12:43:40Z</time>
					</trkpt>
					<trkpt lat="49.025030" lon="2.297510">
						<ele>103</ele>
						<time>2024-05-30T12:43:45Z</time>
					</trkpt>
					<trkpt lat="49.025260" lon="2.298190">
						<ele>106</ele>
						<time>2024-05-30T12:43:54Z</time>
					</trkpt>
					<trkpt lat="49.025390" lon="2.298800">
						<ele>107</ele>
						<time>2024-05-30T12:44:01Z</time>
					</trkpt>
					<trkpt lat="49.025410" lon="2.299180">
						<ele>107</ele>
						<time>2024-05-30T12:44:06Z</time>
					</trkpt>
					<trkpt lat="49.025400" lon="2.299710">
						<ele>108</ele>
						<time>2024-05-30T12:44:12Z</time>
					</trkpt>
					<trkpt lat="49.025130" lon="2.303380">
						<ele>122</ele>
						<time>2024-05-30T12:44:55Z</time>
					</trkpt>
					<trkpt lat="49.025150" lon="2.303710">
						<ele>123</ele>
						<time>2024-05-30T12:44:59Z</time>
					</trkpt>
					<trkpt lat="49.025860" lon="2.310030">
						<ele>143</ele>
						<time>2024-05-30T12:46:14Z</time>
					</trkpt>
					<trkpt lat="49.025910" lon="2.310630">
						<ele>144</ele>
						<time>2024-05-30T12:46:21Z</time>
					</trkpt>
					<trkpt lat="49.025960" lon="2.310900">
						<ele>145</ele>
						<time>2024-05-30T12:46:24Z</time>
					</trkpt>
					<trkpt lat="49.026010" lon="2.311060">
						<ele>146</ele>
						<time>2024-05-30T12:46:26Z</time>
					</trkpt>
					<trkpt lat="49.026180" lon="2.311460">
						<ele>148</ele>
						<time>2024-05-30T12:46:32Z</time>
					</trkpt>
					<trkpt lat="49.026310" lon="2.311620">
						<ele>149</ele>
						<time>2024-05-30T12:46:35Z</time>
					</trkpt>
					<trkpt lat="49.026440" lon="2.311750">
						<ele>150</ele>
						<time>2024-05-30T12:46:37Z</time>
					</trkpt>
					<trkpt lat="49.026610" lon="2.311860">
						<ele>151</ele>
						<time>2024-05-30T12:46:41Z</time>
					</trkpt>
					<trkpt lat="49.026860" lon="2.311950">
						<ele>152</ele>
						<time>2024-05-30T12:46:45Z</time>
					</trkpt>
					<trkpt lat="49.027140" lon="2.311990">
						<ele>153</ele>
						<time>2024-05-30T12:46:50Z</time>
					</trkpt>
					<trkpt lat="49.027380" lon="2.311980">
						<ele>153</ele>
						<time>2024-05-30T12:46:54Z</time>
					</trkpt>
					<trkpt lat="49.027520" lon="2.311940">
						<ele>154</ele>
						<time>2024-05-30T12:46:57Z</time>
					</trkpt>
					<trkpt lat="49.027730" lon="2.311820">
						<ele>154</ele>
						<time>2024-05-30T12:47:01Z</time>
					</trkpt>
					<trkpt lat="49.027870" lon="2.311710">
						<ele>154</ele>
						<time>2024-05-30T12:47:04Z</time>
					</trkpt>
					<trkpt lat="49.028100" lon="2.311420">
						<ele>156</ele>
						<time>2024-05-30T12:47:09Z</time>
					</trkpt>
					<trkpt lat="49.028200" lon="2.311230">
						<ele>156</ele>
						<time>2024-05-30T12:47:12Z</time>
					</trkpt>
					<trkpt lat="49.028480" lon="2.310550">
						<ele>157</ele>
						<time>2024-05-30T12:47:21Z</time>
					</trkpt>
					<trkpt lat="49.028640" lon="2.310300">
						<ele>158</ele>
						<time>2024-05-30T12:47:25Z</time>
					</trkpt>
					<trkpt lat="49.028820" lon="2.310130">
						<ele>158</ele>
						<time>2024-05-30T12:47:29Z</time>
					</trkpt>
					<trkpt lat="49.029170" lon="2.309830">
						<ele>158</ele>
						<time>2024-05-30T12:47:36Z</time>
					</trkpt>
					<trkpt lat="49.029580" lon="2.309300">
						<ele>159</ele>
						<time>2024-05-30T12:47:46Z</time>
					</trkpt>
					<trkpt lat="49.030530" lon="2.308270">
						<ele>156</ele>
						<time>2024-05-30T12:48:07Z</time>
					</trkpt>
					<trkpt lat="49.030680" lon="2.308190">
						<ele>156</ele>
						<time>2024-05-30T12:48:09Z</time>
					</trkpt>
					<trkpt lat="49.030870" lon="2.308160">
						<ele>155</ele>
						<time>2024-05-30T12:48:13Z</time>
					</trkpt>
					<trkpt lat="49.031070" lon="2.308170">
						<ele>155</ele>
						<time>2024-05-30T12:48:16Z</time>
					</trkpt>
					<trkpt lat="49.031200" lon="2.308220">
						<ele>154</ele>
						<time>2024-05-30T12:48:19Z</time>
					</trkpt>
					<trkpt lat="49.031360" lon="2.308330">
						<ele>153</ele>
						<time>2024-05-30T12:48:22Z</time>
					</trkpt>
					<trkpt lat="49.031520" lon="2.308470">
						<ele>153</ele>
						<time>2024-05-30T12:48:25Z</time>
					</trkpt>
					<trkpt lat="49.032450" lon="2.309900">
						<ele>146</ele>
						<time>2024-05-30T12:48:49Z</time>
					</trkpt>
					<trkpt lat="49.032710" lon="2.310200">
						<ele>143</ele>
						<time>2024-05-30T12:48:54Z</time>
					</trkpt>
					<trkpt lat="49.033090" lon="2.310580">
						<ele>138</ele>
						<time>2024-05-30T12:49:03Z</time>
					</trkpt>
					<trkpt lat="49.033220" lon="2.310670">
						<ele>136</ele>
						<time>2024-05-30T12:49:05Z</time>
					</trkpt>
					<trkpt lat="49.033670" lon="2.310930">
						<ele>131</ele>
						<time>2024-05-30T12:49:14Z</time>
					</trkpt>
					<trkpt lat="49.036890" lon="2.311960">
						<ele>116</ele>
						<time>2024-05-30T12:50:12Z</time>
					</trkpt>
					<trkpt lat="49.037150" lon="2.312060">
						<ele>115</ele>
						<time>2024-05-30T12:50:17Z</time>
					</trkpt>
					<trkpt lat="49.037420" lon="2.312230">
						<ele>114</ele>
						<time>2024-05-30T12:50:22Z</time>
					</trkpt>
					<trkpt lat="49.038510" lon="2.313920">
						<ele>110</ele>
						<time>2024-05-30T12:50:50Z</time>
					</trkpt>
					<trkpt lat="49.038530" lon="2.314000">
						<ele>110</ele>
						<time>2024-05-30T12:50:51Z</time>
					</trkpt>
					<trkpt lat="49.040490" lon="2.317130">
						<ele>109</ele>
						<time>2024-05-30T12:51:41Z</time>
					</trkpt>
					<trkpt lat="49.040580" lon="2.317290">
						<ele>109</ele>
						<time>2024-05-30T12:51:44Z</time>
					</trkpt>
					<trkpt lat="49.040680" lon="2.317550">
						<ele>108</ele>
						<time>2024-05-30T12:51:47Z</time>
					</trkpt>
					<trkpt lat="49.041070" lon="2.318760">
						<ele>106</ele>
						<time>2024-05-30T12:52:03Z</time>
					</trkpt>
					<trkpt lat="49.041210" lon="2.319080">
						<ele>105</ele>
						<time>2024-05-30T12:52:07Z</time>
					</trkpt>
					<trkpt lat="49.041340" lon="2.319310">
						<ele>105</ele>
						<time>2024-05-30T12:52:11Z</time>
					</trkpt>
					<trkpt lat="49.041530" lon="2.319580">
						<ele>104</ele>
						<time>2024-05-30T12:52:16Z</time>
					</trkpt>
					<trkpt lat="49.041880" lon="2.320000">
						<ele>103</ele>
						<time>2024-05-30T12:52:24Z</time>
					</trkpt>
					<trkpt lat="49.042030" lon="2.320080">
						<ele>103</ele>
						<time>2024-05-30T12:52:26Z</time>
					</trkpt>
					<trkpt lat="49.042200" lon="2.320300">
						<ele>102</ele>
						<time>2024-05-30T12:52:30Z</time>
					</trkpt>
					<trkpt lat="49.042890" lon="2.321230">
						<ele>101</ele>
						<time>2024-05-30T12:52:47Z</time>
					</trkpt>
					<trkpt lat="49.043030" lon="2.321460">
						<ele>101</ele>
						<time>2024-05-30T12:52:50Z</time>
					</trkpt>
					<trkpt lat="49.043450" lon="2.322480">
						<ele>99</ele>
						<time>2024-05-30T12:53:04Z</time>
					</trkpt>
					<trkpt lat="49.043820" lon="2.323670">
						<ele>99</ele>
						<time>2024-05-30T12:53:20Z</time>
					</trkpt>
					<trkpt lat="49.044000" lon="2.324040">
						<ele>98</ele>
						<time>2024-05-30T12:53:25Z</time>
					</trkpt>
					<trkpt lat="49.044180" lon="2.324460">
						<ele>97</ele>
						<time>2024-05-30T12:53:31Z</time>
					</trkpt>
					<trkpt lat="49.044400" lon="2.325020">
						<ele>97</ele>
						<time>2024-05-30T12:53:39Z</time>
					</trkpt>
					<trkpt lat="49.045220" lon="2.327620">
						<ele>94</ele>
						<time>2024-05-30T12:54:12Z</time>
					</trkpt>
					<trkpt lat="49.045670" lon="2.328780">
						<ele>93</ele>
						<time>2024-05-30T12:54:28Z</time>
					</trkpt>
					<trkpt lat="49.045760" lon="2.329050">
						<ele>92</ele>
						<time>2024-05-30T12:54:32Z</time>
					</trkpt>
					<trkpt lat="49.045870" lon="2.329300">
						<ele>91</ele>
						<time>2024-05-30T12:54:35Z</time>
					</trkpt>
					<trkpt lat="49.045990" lon="2.329470">
						<ele>92</ele>
						<time>2024-05-30T12:54:38Z</time>
					</trkpt>
					<trkpt lat="49.046350" lon="2.330320">
						<ele>92</ele>
						<time>2024-05-30T12:54:50Z</time>
					</trkpt>
					<trkpt lat="49.046460" lon="2.330570">
						<ele>92</ele>
						<time>2024-05-30T12:54:53Z</time>
					</trkpt>
					<trkpt lat="49.047150" lon="2.331570">
						<ele>90</ele>
						<time>2024-05-30T12:55:10Z</time>
					</trkpt>
					<trkpt lat="49.047220" lon="2.331710">
						<ele>90</ele>
						<time>2024-05-30T12:55:12Z</time>
					</trkpt>
					<trkpt lat="49.047240" lon="2.331810">
						<ele>90</ele>
						<time>2024-05-30T12:55:13Z</time>
					</trkpt>
					<trkpt lat="49.047240" lon="2.331920">
						<ele>90</ele>
						<time>2024-05-30T12:55:15Z</time>
					</trkpt>
					<trkpt lat="49.047390" lon="2.332040">
						<ele>89</ele>
						<time>2024-05-30T12:55:18Z</time>
					</trkpt>
					<trkpt lat="49.047440" lon="2.332040">
						<ele>89</ele>
						<time>2024-05-30T12:55:19Z</time>
					</trkpt>
					<trkpt lat="49.047610" lon="2.332130">
						<ele>88</ele>
						<time>2024-05-30T12:55:22Z</time>
					</trkpt>
					<trkpt lat="49.047760" lon="2.332270">
						<ele>88</ele>
						<time>2024-05-30T12:55:25Z</time>
					</trkpt>
					<trkpt lat="49.048310" lon="2.333110">
						<ele>85</ele>
						<time>2024-05-30T12:55:39Z</time>
					</trkpt>
					<trkpt lat="49.048430" lon="2.333240">
						<ele>85</ele>
						<time>2024-05-30T12:55:41Z</time>
					</trkpt>
					<trkpt lat="49.048460" lon="2.333350">
						<ele>85</ele>
						<time>2024-05-30T12:55:43Z</time>
					</trkpt>
					<trkpt lat="49.048530" lon="2.333400">
						<ele>85</ele>
						<time>2024-05-30T12:55:44Z</time>
					</trkpt>
					<trkpt lat="49.048840" lon="2.333780">
						<ele>86</ele>
						<time>2024-05-30T12:55:51Z</time>
					</trkpt>
					<trkpt lat="49.049260" lon="2.334240">
						<ele>86</ele>
						<time>2024-05-30T12:56:00Z</time>
					</trkpt>
					<trkpt lat="49.048370" lon="2.335470">
						<ele>85</ele>
						<time>2024-05-30T12:56:22Z</time>
					</trkpt>
					<trkpt lat="49.048260" lon="2.335670">
						<ele>85</ele>
						<time>2024-05-30T12:56:25Z</time>
					</trkpt>
					<trkpt lat="49.048110" lon="2.336220">
						<ele>86</ele>
						<time>2024-05-30T12:56:32Z</time>
					</trkpt>
					<trkpt lat="49.048090" lon="2.336350">
						<ele>86</ele>
						<time>2024-05-30T12:56:33Z</time>
					</trkpt>
					<trkpt lat="49.048110" lon="2.336460">
						<ele>86</ele>
						<time>2024-05-30T12:56:35Z</time>
					</trkpt>
					<trkpt lat="49.049730" lon="2.335660">
						<ele>92</ele>
						<time>2024-05-30T12:57:05Z</time>
					</trkpt>
					<trkpt lat="49.050210" lon="2.335510">
						<ele>94</ele>
						<time>2024-05-30T12:57:14Z</time>
					</trkpt>
					<trkpt lat="49.050270" lon="2.335650">
						<ele>95</ele>
						<time>2024-05-30T12:57:16Z</time>
					</trkpt>
					<trkpt lat="49.050410" lon="2.336370">
						<ele>96</ele>
						<time>2024-05-30T12:57:24Z</time>
					</trkpt>
					<trkpt lat="49.050530" lon="2.336860">
						<ele>97</ele>
						<time>2024-05-30T12:57:31Z</time>
					</trkpt>
					<trkpt lat="49.051030" lon="2.337860">
						<ele>98</ele>
						<time>2024-05-30T12:57:45Z</time>
					</trkpt>
					<trkpt lat="49.051590" lon="2.338860">
						<ele>99</ele>
						<time>2024-05-30T12:58:01Z</time>
					</trkpt>
					<trkpt lat="49.051680" lon="2.338990">
						<ele>99</ele>
						<time>2024-05-30T12:58:03Z</time>
					</trkpt>
					<trkpt lat="49.054930" lon="2.342160">
						<ele>97</ele>
						<time>2024-05-30T12:59:11Z</time>
					</trkpt>
					<trkpt lat="49.055300" lon="2.342450">
						<ele>98</ele>
						<time>2024-05-30T12:59:19Z</time>
					</trkpt>
					<trkpt lat="49.055450" lon="2.342560">
						<ele>98</ele>
						<time>2024-05-30T12:59:22Z</time>
					</trkpt>
					<trkpt lat="49.056280" lon="2.343070">
						<ele>97</ele>
						<time>2024-05-30T12:59:38Z</time>
					</trkpt>
					<trkpt lat="49.056340" lon="2.343160">
						<ele>97</ele>
						<time>2024-05-30T12:59:39Z</time>
					</trkpt>
					<trkpt lat="49.056410" lon="2.343300">
						<ele>97</ele>
						<time>2024-05-30T12:59:41Z</time>
					</trkpt>
					<trkpt lat="49.056790" lon="2.344850">
						<ele>96</ele>
						<time>2024-05-30T13:00:01Z</time>
					</trkpt>
					<trkpt lat="49.056880" lon="2.345010">
						<ele>97</ele>
						<time>2024-05-30T13:00:03Z</time>
					</trkpt>
					<trkpt lat="49.056980" lon="2.345080">
						<ele>96</ele>
						<time>2024-05-30T13:00:05Z</time>
					</trkpt>
					<trkpt lat="49.057320" lon="2.345610">
						<ele>97</ele>
						<time>2024-05-30T13:00:14Z</time>
					</trkpt>
					<trkpt lat="49.057450" lon="2.345900">
						<ele>98</ele>
						<time>2024-05-30T13:00:18Z</time>
					</trkpt>
					<trkpt lat="49.057500" lon="2.346150">
						<ele>100</ele>
						<time>2024-05-30T13:00:21Z</time>
					</trkpt>
					<trkpt lat="49.057550" lon="2.346270">
						<ele>100</ele>
						<time>2024-05-30T13:00:22Z</time>
					</trkpt>
					<trkpt lat="49.057710" lon="2.346530">
						<ele>102</ele>
						<time>2024-05-30T13:00:27Z</time>
					</trkpt>
					<trkpt lat="49.058020" lon="2.346940">
						<ele>104</ele>
						<time>2024-05-30T13:00:34Z</time>
					</trkpt>
					<trkpt lat="49.058180" lon="2.347670">
						<ele>108</ele>
						<time>2024-05-30T13:00:43Z</time>
					</trkpt>
					<trkpt lat="49.058240" lon="2.348100">
						<ele>108</ele>
						<time>2024-05-30T13:00:48Z</time>
					</trkpt>
					<trkpt lat="49.058280" lon="2.349300">
						<ele>108</ele>
						<time>2024-05-30T13:01:02Z</time>
					</trkpt>
					<trkpt lat="49.058380" lon="2.350250">
						<ele>108</ele>
						<time>2024-05-30T13:01:13Z</time>
					</trkpt>
					<trkpt lat="49.058810" lon="2.351820">
						<ele>107</ele>
						<time>2024-05-30T13:01:33Z</time>
					</trkpt>
					<trkpt lat="49.059110" lon="2.352740">
						<ele>108</ele>
						<time>2024-05-30T13:01:45Z</time>
					</trkpt>
					<trkpt lat="49.059040" lon="2.352920">
						<ele>108</ele>
						<time>2024-05-30T13:01:47Z</time>
					</trkpt>
					<trkpt lat="49.059010" lon="2.353080">
						<ele>108</ele>
						<time>2024-05-30T13:01:49Z</time>
					</trkpt>
					<trkpt lat="49.059120" lon="2.355800">
						<ele>111</ele>
						<time>2024-05-30T13:02:21Z</time>
					</trkpt>
					<trkpt lat="49.059160" lon="2.357150">
						<ele>113</ele>
						<time>2024-05-30T13:02:37Z</time>
					</trkpt>
					<trkpt lat="49.059120" lon="2.358700">
						<ele>113</ele>
						<time>2024-05-30T13:02:55Z</time>
					</trkpt>
					<trkpt lat="49.059180" lon="2.360720">
						<ele>113</ele>
						<time>2024-05-30T13:03:19Z</time>
					</trkpt>
					<trkpt lat="49.059190" lon="2.362320">
						<ele>111</ele>
						<time>2024-05-30T13:03:37Z</time>
					</trkpt>
					<trkpt lat="49.059660" lon="2.365370">
						<ele>108</ele>
						<time>2024-05-30T13:04:14Z</time>
					</trkpt>
					<trkpt lat="49.059810" lon="2.366300">
						<ele>109</ele>
						<time>2024-05-30T13:04:25Z</time>
					</trkpt>
					<trkpt lat="49.060240" lon="2.368510">
						<ele>108</ele>
						<time>2024-05-30T13:04:52Z</time>
					</trkpt>
					<trkpt lat="49.060310" lon="2.368900">
						<ele>108</ele>
						<time>2024-05-30T13:04:57Z</time>
					</trkpt>
					<trkpt lat="49.060350" lon="2.369710">
						<ele>109</ele>
						<time>2024-05-30T13:05:06Z</time>
					</trkpt>
					<trkpt lat="49.060310" lon="2.370640">
						<ele>113</ele>
						<time>2024-05-30T13:05:17Z</time>
					</trkpt>
					<trkpt lat="49.060340" lon="2.373910">
						<ele>117</ele>
						<time>2024-05-30T13:05:55Z</time>
					</trkpt>
					<trkpt lat="49.060370" lon="2.374910">
						<ele>117</ele>
						<time>2024-05-30T13:06:07Z</time>
					</trkpt>
					<trkpt lat="49.060810" lon="2.377280">
						<ele>117</ele>
						<time>2024-05-30T13:06:35Z</time>
					</trkpt>
					<trkpt lat="49.061090" lon="2.378640">
						<ele>118</ele>
						<time>2024-05-30T13:06:52Z</time>
					</trkpt>
					<trkpt lat="49.061110" lon="2.379340">
						<ele>118</ele>
						<time>2024-05-30T13:07:00Z</time>
					</trkpt>
					<trkpt lat="49.061040" lon="2.380970">
						<ele>118</ele>
						<time>2024-05-30T13:07:19Z</time>
					</trkpt>
					<trkpt lat="49.060800" lon="2.382570">
						<ele>118</ele>
						<time>2024-05-30T13:07:38Z</time>
					</trkpt>
					<trkpt lat="49.060670" lon="2.383670">
						<ele>117</ele>
						<time>2024-05-30T13:07:51Z</time>
					</trkpt>
					<trkpt lat="49.063390" lon="2.384800">
						<ele>122</ele>
						<time>2024-05-30T13:08:42Z</time>
					</trkpt>
					<trkpt lat="49.063850" lon="2.385000">
						<ele>121</ele>
						<time>2024-05-30T13:08:50Z</time>
					</trkpt>
					<trkpt lat="49.065730" lon="2.385550">
						<ele>119</ele>
						<time>2024-05-30T13:09:24Z</time>
					</trkpt>
					<trkpt lat="49.066820" lon="2.385930">
						<ele>121</ele>
						<time>2024-05-30T13:09:44Z</time>
					</trkpt>
					<trkpt lat="49.067250" lon="2.386250">
						<ele>121</ele>
						<time>2024-05-30T13:09:53Z</time>
					</trkpt>
					<trkpt lat="49.067670" lon="2.386410">
						<ele>122</ele>
						<time>2024-05-30T13:10:00Z</time>
					</trkpt>
					<trkpt lat="49.068820" lon="2.386340">
						<ele>126</ele>
						<time>2024-05-30T13:10:21Z</time>
					</trkpt>
					<trkpt lat="49.069060" lon="2.386380">
						<ele>126</ele>
						<time>2024-05-30T13:10:25Z</time>
					</trkpt>
					<trkpt lat="49.069490" lon="2.386590">
						<ele>127</ele>
						<time>2024-05-30T13:10:33Z</time>
					</trkpt>
					<trkpt lat="49.069590" lon="2.386660">
						<ele>127</ele>
						<time>2024-05-30T13:10:35Z</time>
					</trkpt>
					<trkpt lat="49.069680" lon="2.386830">
						<ele>127</ele>
						<time>2024-05-30T13:10:38Z</time>
					</trkpt>
					<trkpt lat="49.070010" lon="2.387740">
						<ele>127</ele>
						<time>2024-05-30T13:10:50Z</time>
					</trkpt>
					<trkpt lat="49.070160" lon="2.388100">
						<ele>127</ele>
						<time>2024-05-30T13:10:55Z</time>
					</trkpt>
					<trkpt lat="49.070280" lon="2.388230">
						<ele>127</ele>
						<time>2024-05-30T13:10:57Z</time>
					</trkpt>
					<trkpt lat="49.070460" lon="2.388200">
						<ele>128</ele>
						<time>2024-05-30T13:11:00Z</time>
					</trkpt>
					<trkpt lat="49.070460" lon="2.387630">
						<ele>128</ele>
						<time>2024-05-30T13:11:07Z</time>
					</trkpt>
					<trkpt lat="49.070530" lon="2.387140">
						<ele>128</ele>
						<time>2024-05-30T13:11:13Z</time>
					</trkpt>
					<trkpt lat="49.070600" lon="2.386770">
						<ele>129</ele>
						<time>2024-05-30T13:11:17Z</time>
					</trkpt>
					<trkpt lat="49.070630" lon="2.386450">
						<ele>129</ele>
						<time>2024-05-30T13:11:21Z</time>
					</trkpt>
					<trkpt lat="49.070650" lon="2.386360">
						<ele>129</ele>
						<time>2024-05-30T13:11:22Z</time>
					</trkpt>
					<trkpt lat="49.070700" lon="2.386260">
						<ele>129</ele>
						<time>2024-05-30T13:11:24Z</time>
					</trkpt>
					<trkpt lat="49.070780" lon="2.386140">
						<ele>128</ele>
						<time>2024-05-30T13:11:26Z</time>
					</trkpt>
					<trkpt lat="49.070830" lon="2.386080">
						<ele>128</ele>
						<time>2024-05-30T13:11:27Z</time>
					</trkpt>
					<trkpt lat="49.070950" lon="2.386000">
						<ele>128</ele>
						<time>2024-05-30T13:11:29Z</time>
					</trkpt>
					<trkpt lat="49.071320" lon="2.385890">
						<ele>129</ele>
						<time>2024-05-30T13:11:36Z</time>
					</trkpt>
					<trkpt lat="49.071550" lon="2.385830">
						<ele>129</ele>
						<time>2024-05-30T13:11:40Z</time>
					</trkpt>
					<trkpt lat="49.071740" lon="2.385750">
						<ele>129</ele>
						<time>2024-05-30T13:11:44Z</time>
					</trkpt>
					<trkpt lat="49.071920" lon="2.385630">
						<ele>128</ele>
						<time>2024-05-30T13:11:47Z</time>
					</trkpt>
					<trkpt lat="49.072140" lon="2.385420">
						<ele>127</ele>
						<time>2024-05-30T13:11:52Z</time>
					</trkpt>
					<trkpt lat="49.072620" lon="2.384700">
						<ele>125</ele>
						<time>2024-05-30T13:12:04Z</time>
					</trkpt>
					<trkpt lat="49.074130" lon="2.382290">
						<ele>121</ele>
						<time>2024-05-30T13:12:43Z</time>
					</trkpt>
					<trkpt lat="49.074580" lon="2.381690">
						<ele>121</ele>
						<time>2024-05-30T13:12:53Z</time>
					</trkpt>
					<trkpt lat="49.074860" lon="2.381380">
						<ele>120</ele>
						<time>2024-05-30T13:12:59Z</time>
					</trkpt>
					<trkpt lat="49.075080" lon="2.381220">
						<ele>120</ele>
						<time>2024-05-30T13:13:04Z</time>
					</trkpt>
					<trkpt lat="49.075300" lon="2.381120">
						<ele>120</ele>
						<time>2024-05-30T13:13:08Z</time>
					</trkpt>
					<trkpt lat="49.075570" lon="2.381050">
						<ele>120</ele>
						<time>2024-05-30T13:13:13Z</time>
					</trkpt>
					<trkpt lat="49.076320" lon="2.380940">
						<ele>121</ele>
						<time>2024-05-30T13:13:26Z</time>
					</trkpt>
					<trkpt lat="49.076750" lon="2.380810">
						<ele>121</ele>
						<time>2024-05-30T13:13:34Z</time>
					</trkpt>
					<trkpt lat="49.077050" lon="2.380660">
						<ele>123</ele>
						<time>2024-05-30T13:13:39Z</time>
					</trkpt>
					<trkpt lat="49.078060" lon="2.379730">
						<ele>126</ele>
						<time>2024-05-30T13:14:00Z</time>
					</trkpt>
					<trkpt lat="49.078380" lon="2.379480">
						<ele>127</ele>
						<time>2024-05-30T13:14:07Z</time>
					</trkpt>
					<trkpt lat="49.079790" lon="2.378730">
						<ele>125</ele>
						<time>2024-05-30T13:14:33Z</time>
					</trkpt>
					<trkpt lat="49.080360" lon="2.378440">
						<ele>123</ele>
						<time>2024-05-30T13:14:44Z</time>
					</trkpt>
					<trkpt lat="49.080600" lon="2.378190">
						<ele>122</ele>
						<time>2024-05-30T13:14:49Z</time>
					</trkpt>
					<trkpt lat="49.080940" lon="2.377780">
						<ele>122</ele>
						<time>2024-05-30T13:14:57Z</time>
					</trkpt>
					<trkpt lat="49.081220" lon="2.377540">
						<ele>122</ele>
						<time>2024-05-30T13:15:03Z</time>
					</trkpt>
					<trkpt lat="49.081380" lon="2.377450">
						<ele>121</ele>
						<time>2024-05-30T13:15:06Z</time>
					</trkpt>
					<trkpt lat="49.082450" lon="2.377030">
						<ele>117</ele>
						<time>2024-05-30T13:15:25Z</time>
					</trkpt>
					<trkpt lat="49.082620" lon="2.377000">
						<ele>117</ele>
						<time>2024-05-30T13:15:28Z</time>
					</trkpt>
					<trkpt lat="49.082820" lon="2.376920">
						<ele>117</ele>
						<time>2024-05-30T13:15:32Z</time>
					</trkpt>
					<trkpt lat="49.083030" lon="2.376800">
						<ele>117</ele>
						<time>2024-05-30T13:15:36Z</time>
					</trkpt>
					<trkpt lat="49.083230" lon="2.376630">
						<ele>117</ele>
						<time>2024-05-30T13:15:40Z</time>
					</trkpt>
					<trkpt lat="49.083440" lon="2.376380">
						<ele>118</ele>
						<time>2024-05-30T13:15:45Z</time>
					</trkpt>
					<trkpt lat="49.083770" lon="2.375950">
						<ele>121</ele>
						<time>2024-05-30T13:15:53Z</time>
					</trkpt>
					<trkpt lat="49.085380" lon="2.373360">
						<ele>129</ele>
						<time>2024-05-30T13:16:34Z</time>
					</trkpt>
					<trkpt lat="49.085680" lon="2.372830">
						<ele>128</ele>
						<time>2024-05-30T13:16:42Z</time>
					</trkpt>
					<trkpt lat="49.085920" lon="2.372480">
						<ele>128</ele>
						<time>2024-05-30T13:16:48Z</time>
					</trkpt>
					<trkpt lat="49.086210" lon="2.372170">
						<ele>127</ele>
						<time>2024-05-30T13:16:55Z</time>
					</trkpt>
					<trkpt lat="49.086540" lon="2.371960">
						<ele>126</ele>
						<time>2024-05-30T13:17:01Z</time>
					</trkpt>
					<trkpt lat="49.086700" lon="2.371940">
						<ele>126</ele>
						<time>2024-05-30T13:17:04Z</time>
					</trkpt>
					<trkpt lat="49.087660" lon="2.372010">
						<ele>123</ele>
						<time>2024-05-30T13:17:21Z</time>
					</trkpt>
					<trkpt lat="49.088080" lon="2.371840">
						<ele>121</ele>
						<time>2024-05-30T13:17:29Z</time>
					</trkpt>
					<trkpt lat="49.088260" lon="2.371780">
						<ele>121</ele>
						<time>2024-05-30T13:17:32Z</time>
					</trkpt>
					<trkpt lat="49.088250" lon="2.371650">
						<ele>120</ele>
						<time>2024-05-30T13:17:33Z</time>
					</trkpt>
					<trkpt lat="49.088190" lon="2.371550">
						<ele>120</ele>
						<time>2024-05-30T13:17:35Z</time>
					</trkpt>
					<trkpt lat="49.087510" lon="2.370800">
						<ele>119</ele>
						<time>2024-05-30T13:17:50Z</time>
					</trkpt>
					<trkpt lat="49.086790" lon="2.370040">
						<ele>118</ele>
						<time>2024-05-30T13:18:06Z</time>
					</trkpt>
					<trkpt lat="49.086550" lon="2.369810">
						<ele>118</ele>
						<time>2024-05-30T13:18:11Z</time>
					</trkpt>
					<trkpt lat="49.086070" lon="2.369330">
						<ele>116</ele>
						<time>2024-05-30T13:18:21Z</time>
					</trkpt>
					<trkpt lat="49.085560" lon="2.368700">
						<ele>115</ele>
						<time>2024-05-30T13:18:32Z</time>
					</trkpt>
					<trkpt lat="49.085070" lon="2.368040">
						<ele>114</ele>
						<time>2024-05-30T13:18:44Z</time>
					</trkpt>
					<trkpt lat="49.084450" lon="2.366900">
						<ele>112</ele>
						<time>2024-05-30T13:19:01Z</time>
					</trkpt>
					<trkpt lat="49.084350" lon="2.366760">
						<ele>111</ele>
						<time>2024-05-30T13:19:04Z</time>
					</trkpt>
					<trkpt lat="49.084070" lon="2.366450">
						<ele>110</ele>
						<time>2024-05-30T13:19:10Z</time>
					</trkpt>
					<trkpt lat="49.082920" lon="2.365510">
						<ele>108</ele>
						<time>2024-05-30T13:19:33Z</time>
					</trkpt>
					<trkpt lat="49.082780" lon="2.365430">
						<ele>108</ele>
						<time>2024-05-30T13:19:36Z</time>
					</trkpt>
					<trkpt lat="49.082480" lon="2.365340">
						<ele>108</ele>
						<time>2024-05-30T13:19:41Z</time>
					</trkpt>
					<trkpt lat="49.082390" lon="2.365290">
						<ele>108</ele>
						<time>2024-05-30T13:19:43Z</time>
					</trkpt>
					<trkpt lat="49.082310" lon="2.365210">
						<ele>109</ele>
						<time>2024-05-30T13:19:45Z</time>
					</trkpt>
					<trkpt lat="49.082240" lon="2.365060">
						<ele>109</ele>
						<time>2024-05-30T13:19:47Z</time>
					</trkpt>
					<trkpt lat="49.082200" lon="2.364810">
						<ele>110</ele>
						<time>2024-05-30T13:19:50Z</time>
					</trkpt>
					<trkpt lat="49.082180" lon="2.364390">
						<ele>112</ele>
						<time>2024-05-30T13:19:55Z</time>
					</trkpt>
					<trkpt lat="49.082180" lon="2.363770">
						<ele>115</ele>
						<time>2024-05-30T13:20:02Z</time>
					</trkpt>
					<trkpt lat="49.082160" lon="2.363370">
						<ele>116</ele>
						<time>2024-05-30T13:20:07Z</time>
					</trkpt>
					<trkpt lat="49.082180" lon="2.363260">
						<ele>116</ele>
						<time>2024-05-30T13:20:08Z</time>
					</trkpt>
					<trkpt lat="49.082020" lon="2.362920">
						<ele>117</ele>
						<time>2024-05-30T13:20:13Z</time>
					</trkpt>
					<trkpt lat="49.081860" lon="2.362680">
						<ele>117</ele>
						<time>2024-05-30T13:20:17Z</time>
					</trkpt>
					<trkpt lat="49.081630" lon="2.362470">
						<ele>118</ele>
						<time>2024-05-30T13:20:22Z</time>
					</trkpt>
					<trkpt lat="49.079780" lon="2.360490">
						<ele>122</ele>
						<time>2024-05-30T13:21:02Z</time>
					</trkpt>
					<trkpt lat="49.079130" lon="2.359830">
						<ele>123</ele>
						<time>2024-05-30T13:21:16Z</time>
					</trkpt>
					<trkpt lat="49.079050" lon="2.359790">
						<ele>123</ele>
						<time>2024-05-30T13:21:17Z</time>
					</trkpt>
					<trkpt lat="49.078970" lon="2.359780">
						<ele>123</ele>
						<time>2024-05-30T13:21:19Z</time>
					</trkpt>
					<trkpt lat="49.078890" lon="2.359680">
						<ele>122</ele>
						<time>2024-05-30T13:21:20Z</time>
					</trkpt>
					<trkpt lat="49.078820" lon="2.359550">
						<ele>122</ele>
						<time>2024-05-30T13:21:22Z</time>
					</trkpt>
					<trkpt lat="49.078200" lon="2.359070">
						<ele>121</ele>
						<time>2024-05-30T13:21:35Z</time>
					</trkpt>
					<trkpt lat="49.077850" lon="2.358840">
						<ele>120</ele>
						<time>2024-05-30T13:21:42Z</time>
					</trkpt>
					<trkpt lat="49.077140" lon="2.358250">
						<ele>118</ele>
						<time>2024-05-30T13:21:56Z</time>
					</trkpt>
					<trkpt lat="49.076500" lon="2.357820">
						<ele>117</ele>
						<time>2024-05-30T13:22:08Z</time>
					</trkpt>
					<trkpt lat="49.076480" lon="2.357980">
						<ele>117</ele>
						<time>2024-05-30T13:22:10Z</time>
					</trkpt>
					<trkpt lat="49.076140" lon="2.358910">
						<ele>117</ele>
						<time>2024-05-30T13:22:23Z</time>
					</trkpt>
					<trkpt lat="49.075660" lon="2.361320">
						<ele>117</ele>
						<time>2024-05-30T13:22:52Z</time>
					</trkpt>
					<trkpt lat="49.075600" lon="2.361470">
						<ele>117</ele>
						<time>2024-05-30T13:22:54Z</time>
					</trkpt>
					<trkpt lat="49.075540" lon="2.361870">
						<ele>117</ele>
						<time>2024-05-30T13:22:59Z</time>
					</trkpt>
					<trkpt lat="49.075360" lon="2.362380">
						<ele>119</ele>
						<time>2024-05-30T13:23:06Z</time>
					</trkpt>
					<trkpt lat="49.075180" lon="2.362800">
						<ele>119</ele>
						<time>2024-05-30T13:23:11Z</time>
					</trkpt>
					<trkpt lat="49.074580" lon="2.364110">
						<ele>119</ele>
						<time>2024-05-30T13:23:30Z</time>
					</trkpt>
					<trkpt lat="49.074160" lon="2.365100">
						<ele>121</ele>
						<time>2024-05-30T13:23:44Z</time>
					</trkpt>
					<trkpt lat="49.073800" lon="2.366040">
						<ele>122</ele>
						<time>2024-05-30T13:23:57Z</time>
					</trkpt>
					<trkpt lat="49.073570" lon="2.366810">
						<ele>123</ele>
						<time>2024-05-30T13:24:06Z</time>
					</trkpt>
					<trkpt lat="49.073170" lon="2.368370">
						<ele>125</ele>
						<time>2024-05-30T13:24:26Z</time>
					</trkpt>
					<trkpt lat="49.072870" lon="2.369650">
						<ele>125</ele>
						<time>2024-05-30T13:24:42Z</time>
					</trkpt>
					<trkpt lat="49.072370" lon="2.372080">
						<ele>124</ele>
						<time>2024-05-30T13:25:11Z</time>
					</trkpt>
					<trkpt lat="49.071970" lon="2.374350">
						<ele>123</ele>
						<time>2024-05-30T13:25:39Z</time>
					</trkpt>
					<trkpt lat="49.071740" lon="2.375520">
						<ele>124</ele>
						<time>2024-05-30T13:25:53Z</time>
					</trkpt>
					<trkpt lat="49.070390" lon="2.374280">
						<ele>121</ele>
						<time>2024-05-30T13:26:21Z</time>
					</trkpt>
					<trkpt lat="49.070040" lon="2.374000">
						<ele>121</ele>
						<time>2024-05-30T13:26:28Z</time>
					</trkpt>
					<trkpt lat="49.069110" lon="2.373300">
						<ele>119</ele>
						<time>2024-05-30T13:26:47Z</time>
					</trkpt>
					<trkpt lat="49.068890" lon="2.373160">
						<ele>118</ele>
						<time>2024-05-30T13:26:51Z</time>
					</trkpt>
					<trkpt lat="49.068600" lon="2.373040">
						<ele>118</ele>
						<time>2024-05-30T13:26:56Z</time>
					</trkpt>
					<trkpt lat="49.066730" lon="2.372720">
						<ele>113</ele>
						<time>2024-05-30T13:27:30Z</time>
					</trkpt>
					<trkpt lat="49.066530" lon="2.372640">
						<ele>113</ele>
						<time>2024-05-30T13:27:33Z</time>
					</trkpt>
					<trkpt lat="49.066510" lon="2.372490">
						<ele>113</ele>
						<time>2024-05-30T13:27:35Z</time>
					</trkpt>
					<trkpt lat="49.066450" lon="2.372330">
						<ele>113</ele>
						<time>2024-05-30T13:27:37Z</time>
					</trkpt>
					<trkpt lat="49.066360" lon="2.372190">
						<ele>113</ele>
						<time>2024-05-30T13:27:40Z</time>
					</trkpt>
					<trkpt lat="49.066240" lon="2.372170">
						<ele>114</ele>
						<time>2024-05-30T13:27:42Z</time>
					</trkpt>
					<trkpt lat="49.065860" lon="2.372370">
						<ele>114</ele>
						<time>2024-05-30T13:27:49Z</time>
					</trkpt>
					<trkpt lat="49.065680" lon="2.372300">
						<ele>113</ele>
						<time>2024-05-30T13:27:52Z</time>
					</trkpt>
					<trkpt lat="49.065510" lon="2.371840">
						<ele>112</ele>
						<time>2024-05-30T13:27:58Z</time>
					</trkpt>
					<trkpt lat="49.063960" lon="2.366710">
						<ele>115</ele>
						<time>2024-05-30T13:29:04Z</time>
					</trkpt>
					<trkpt lat="49.061530" lon="2.359000">
						<ele>114</ele>
						<time>2024-05-30T13:30:44Z</time>
					</trkpt>
					<trkpt lat="49.060480" lon="2.355720">
						<ele>110</ele>
						<time>2024-05-30T13:31:27Z</time>
					</trkpt>
					<trkpt lat="49.059930" lon="2.352970">
						<ele>109</ele>
						<time>2024-05-30T13:32:00Z</time>
					</trkpt>
					<trkpt lat="49.059910" lon="2.352400">
						<ele>109</ele>
						<time>2024-05-30T13:32:07Z</time>
					</trkpt>
					<trkpt lat="49.059950" lon="2.351440">
						<ele>110</ele>
						<time>2024-05-30T13:32:18Z</time>
					</trkpt>
					<trkpt lat="49.060000" lon="2.350980">
						<ele>110</ele>
						<time>2024-05-30T13:32:23Z</time>
					</trkpt>
					<trkpt lat="49.060050" lon="2.350610">
						<ele>110</ele>
						<time>2024-05-30T13:32:28Z</time>
					</trkpt>
					<trkpt lat="49.060130" lon="2.350380">
						<ele>110</ele>
						<time>2024-05-30T13:32:31Z</time>
					</trkpt>
					<trkpt lat="49.060200" lon="2.350300">
						<ele>110</ele>
						<time>2024-05-30T13:32:32Z</time>
					</trkpt>
					<trkpt lat="49.060310" lon="2.350230">
						<ele>110</ele>
						<time>2024-05-30T13:32:34Z</time>
					</trkpt>
					<trkpt lat="49.060390" lon="2.350210">
						<ele>110</ele>
						<time>2024-05-30T13:32:36Z</time>
					</trkpt>
					<trkpt lat="49.060570" lon="2.350240">
						<ele>110</ele>
						<time>2024-05-30T13:32:39Z</time>
					</trkpt>
					<trkpt lat="49.060630" lon="2.350220">
						<ele>111</ele>
						<time>2024-05-30T13:32:40Z</time>
					</trkpt>
					<trkpt lat="49.060690" lon="2.350160">
						<ele>111</ele>
						<time>2024-05-30T13:32:41Z</time>
					</trkpt>
					<trkpt lat="49.060720" lon="2.350030">
						<ele>111</ele>
						<time>2024-05-30T13:32:43Z</time>
					</trkpt>
					<trkpt lat="49.060700" lon="2.349840">
						<ele>111</ele>
						<time>2024-05-30T13:32:45Z</time>
					</trkpt>
					<trkpt lat="49.060540" lon="2.349490">
						<ele>110</ele>
						<time>2024-05-30T13:32:50Z</time>
					</trkpt>
					<trkpt lat="49.060520" lon="2.349400">
						<ele>110</ele>
						<time>2024-05-30T13:32:51Z</time>
					</trkpt>
					<trkpt lat="49.060460" lon="2.348880">
						<ele>109</ele>
						<time>2024-05-30T13:32:58Z</time>
					</trkpt>
					<trkpt lat="49.060490" lon="2.348690">
						<ele>108</ele>
						<time>2024-05-30T13:33:00Z</time>
					</trkpt>
					<trkpt lat="49.060640" lon="2.348110">
						<ele>106</ele>
						<time>2024-05-30T13:33:07Z</time>
					</trkpt>
					<trkpt lat="49.060760" lon="2.347790">
						<ele>105</ele>
						<time>2024-05-30T13:33:11Z</time>
					</trkpt>
					<trkpt lat="49.060910" lon="2.347560">
						<ele>104</ele>
						<time>2024-05-30T13:33:15Z</time>
					</trkpt>
					<trkpt lat="49.061190" lon="2.347260">
						<ele>103</ele>
						<time>2024-05-30T13:33:21Z</time>
					</trkpt>
					<trkpt lat="49.061470" lon="2.346370">
						<ele>102</ele>
						<time>2024-05-30T13:33:33Z</time>
					</trkpt>
					<trkpt lat="49.061460" lon="2.346100">
						<ele>103</ele>
						<time>2024-05-30T13:33:36Z</time>
					</trkpt>
					<trkpt lat="49.061470" lon="2.345960">
						<ele>103</ele>
						<time>2024-05-30T13:33:38Z</time>
					</trkpt>
					<trkpt lat="49.061560" lon="2.345480">
						<ele>103</ele>
						<time>2024-05-30T13:33:43Z</time>
					</trkpt>
					<trkpt lat="49.061850" lon="2.344330">
						<ele>102</ele>
						<time>2024-05-30T13:33:58Z</time>
					</trkpt>
					<trkpt lat="49.061970" lon="2.343520">
						<ele>105</ele>
						<time>2024-05-30T13:34:07Z</time>
					</trkpt>
					<trkpt lat="49.062130" lon="2.343010">
						<ele>107</ele>
						<time>2024-05-30T13:34:14Z</time>
					</trkpt>
					<trkpt lat="49.062140" lon="2.342890">
						<ele>107</ele>
						<time>2024-05-30T13:34:15Z</time>
					</trkpt>
					<trkpt lat="49.062090" lon="2.342220">
						<ele>109</ele>
						<time>2024-05-30T13:34:23Z</time>
					</trkpt>
					<trkpt lat="49.062100" lon="2.341980">
						<ele>109</ele>
						<time>2024-05-30T13:34:26Z</time>
					</trkpt>
					<trkpt lat="49.062160" lon="2.341620">
						<ele>110</ele>
						<time>2024-05-30T13:34:30Z</time>
					</trkpt>
					<trkpt lat="49.062250" lon="2.341360">
						<ele>110</ele>
						<time>2024-05-30T13:34:34Z</time>
					</trkpt>
					<trkpt lat="49.062390" lon="2.341110">
						<ele>110</ele>
						<time>2024-05-30T13:34:38Z</time>
					</trkpt>
					<trkpt lat="49.062590" lon="2.340890">
						<ele>110</ele>
						<time>2024-05-30T13:34:42Z</time>
					</trkpt>
					<trkpt lat="49.062800" lon="2.340680">
						<ele>110</ele>
						<time>2024-05-30T13:34:47Z</time>
					</trkpt>
					<trkpt lat="49.062910" lon="2.340540">
						<ele>111</ele>
						<time>2024-05-30T13:34:49Z</time>
					</trkpt>
					<trkpt lat="49.063000" lon="2.340370">
						<ele>111</ele>
						<time>2024-05-30T13:34:52Z</time>
					</trkpt>
					<trkpt lat="49.063060" lon="2.340180">
						<ele>111</ele>
						<time>2024-05-30T13:34:54Z</time>
					</trkpt>
					<trkpt lat="49.063140" lon="2.339700">
						<ele>111</ele>
						<time>2024-05-30T13:35:00Z</time>
					</trkpt>
					<trkpt lat="49.063250" lon="2.339170">
						<ele>112</ele>
						<time>2024-05-30T13:35:06Z</time>
					</trkpt>
					<trkpt lat="49.063280" lon="2.338880">
						<ele>112</ele>
						<time>2024-05-30T13:35:10Z</time>
					</trkpt>
					<trkpt lat="49.063100" lon="2.338840">
						<ele>112</ele>
						<time>2024-05-30T13:35:13Z</time>
					</trkpt>
					<trkpt lat="49.063000" lon="2.338790">
						<ele>112</ele>
						<time>2024-05-30T13:35:15Z</time>
					</trkpt>
					<trkpt lat="49.062930" lon="2.338720">
						<ele>112</ele>
						<time>2024-05-30T13:35:16Z</time>
					</trkpt>
					<trkpt lat="49.062870" lon="2.338590">
						<ele>112</ele>
						<time>2024-05-30T13:35:18Z</time>
					</trkpt>
					<trkpt lat="49.062820" lon="2.338540">
						<ele>112</ele>
						<time>2024-05-30T13:35:19Z</time>
					</trkpt>
					<trkpt lat="49.062800" lon="2.338390">
						<ele>112</ele>
						<time>2024-05-30T13:35:21Z</time>
					</trkpt>
					<trkpt lat="49.062660" lon="2.338370">
						<ele>112</ele>
						<time>2024-05-30T13:35:24Z</time>
					</trkpt>
					<trkpt lat="49.062640" lon="2.338450">
						<ele>112</ele>
						<time>2024-05-30T13:35:25Z</time>
					</trkpt>
					<trkpt lat="49.062560" lon="2.338510">
						<ele>112</ele>
						<time>2024-05-30T13:35:26Z</time>
					</trkpt>
					<trkpt lat="49.062500" lon="2.338660">
						<ele>111</ele>
						<time>2024-05-30T13:35:28Z</time>
					</trkpt>
					<trkpt lat="49.062470" lon="2.338960">
						<ele>110</ele>
						<time>2024-05-30T13:35:32Z</time>
					</trkpt>
					<trkpt lat="49.062430" lon="2.339020">
						<ele>110</ele>
						<time>2024-05-30T13:35:33Z</time>
					</trkpt>
					<trkpt lat="49.062290" lon="2.339090">
						<ele>110</ele>
						<time>2024-05-30T13:35:35Z</time>
					</trkpt>
					<trkpt lat="49.062180" lon="2.339040">
						<ele>110</ele>
						<time>2024-05-30T13:35:37Z</time>
					</trkpt>
					<trkpt lat="49.061800" lon="2.338900">
						<ele>110</ele>
						<time>2024-05-30T13:35:44Z</time>
					</trkpt>
					<trkpt lat="49.061690" lon="2.338910">
						<ele>110</ele>
						<time>2024-05-30T13:35:46Z</time>
					</trkpt>
					<trkpt lat="49.061560" lon="2.338860">
						<ele>110</ele>
						<time>2024-05-30T13:35:49Z</time>
					</trkpt>
					<trkpt lat="49.061280" lon="2.338640">
						<ele>110</ele>
						<time>2024-05-30T13:35:54Z</time>
					</trkpt>
					<trkpt lat="49.061230" lon="2.338460">
						<ele>110</ele>
						<time>2024-05-30T13:35:57Z</time>
					</trkpt>
					<trkpt lat="49.061140" lon="2.338260">
						<ele>110</ele>
						<time>2024-05-30T13:35:59Z</time>
					</trkpt>
					<trkpt lat="49.060970" lon="2.338110">
						<ele>110</ele>
						<time>2024-05-30T13:36:03Z</time>
					</trkpt>
					<trkpt lat="49.060870" lon="2.337960">
						<ele>110</ele>
						<time>2024-05-30T13:36:05Z</time>
					</trkpt>
					<trkpt lat="49.060830" lon="2.338020">
						<ele>110</ele>
						<time>2024-05-30T13:36:06Z</time>
					</trkpt>
					<trkpt lat="49.060720" lon="2.338030">
						<ele>110</ele>
						<time>2024-05-30T13:36:08Z</time>
					</trkpt>
					<trkpt lat="49.060670" lon="2.338010">
						<ele>110</ele>
						<time>2024-05-30T13:36:09Z</time>
					</trkpt>
					<trkpt lat="49.060660" lon="2.337710">
						<ele>110</ele>
						<time>2024-05-30T13:36:13Z</time>
					</trkpt>
					<trkpt lat="49.060520" lon="2.336670">
						<ele>110</ele>
						<time>2024-05-30T13:36:25Z</time>
					</trkpt>
					<trkpt lat="49.060480" lon="2.336180">
						<ele>109</ele>
						<time>2024-05-30T13:36:31Z</time>
					</trkpt>
					<trkpt lat="49.060450" lon="2.335520">
						<ele>109</ele>
						<time>2024-05-30T13:36:39Z</time>
					</trkpt>
					<trkpt lat="49.060470" lon="2.333700">
						<ele>109</ele>
						<time>2024-05-30T13:37:00Z</time>
					</trkpt>
					<trkpt lat="49.060450" lon="2.333190">
						<ele>108</ele>
						<time>2024-05-30T13:37:06Z</time>
					</trkpt>
					<trkpt lat="49.060420" lon="2.333090">
						<ele>108</ele>
						<time>2024-05-30T13:37:07Z</time>
					</trkpt>
					<trkpt lat="49.060340" lon="2.332980">
						<ele>108</ele>
						<time>2024-05-30T13:37:09Z</time>
					</trkpt>
					<trkpt lat="49.060310" lon="2.332860">
						<ele>108</ele>
						<time>2024-05-30T13:37:11Z</time>
					</trkpt>
					<trkpt lat="49.060250" lon="2.332770">
						<ele>107</ele>
						<time>2024-05-30T13:37:12Z</time>
					</trkpt>
					<trkpt lat="49.060310" lon="2.332580">
						<ele>107</ele>
						<time>2024-05-30T13:37:15Z</time>
					</trkpt>
					<trkpt lat="49.060270" lon="2.332520">
						<ele>107</ele>
						<time>2024-05-30T13:37:16Z</time>
					</trkpt>
					<trkpt lat="49.060280" lon="2.332460">
						<ele>107</ele>
						<time>2024-05-30T13:37:16Z</time>
					</trkpt>
					<trkpt lat="49.060200" lon="2.332350">
						<ele>107</ele>
						<time>2024-05-30T13:37:18Z</time>
					</trkpt>
					<trkpt lat="49.060180" lon="2.332280">
						<ele>106</ele>
						<time>2024-05-30T13:37:19Z</time>
					</trkpt>
					<trkpt lat="49.060180" lon="2.332090">
						<ele>106</ele>
						<time>2024-05-30T13:37:21Z</time>
					</trkpt>
					<trkpt lat="49.060210" lon="2.332000">
						<ele>106</ele>
						<time>2024-05-30T13:37:22Z</time>
					</trkpt>
					<trkpt lat="49.060260" lon="2.331930">
						<ele>106</ele>
						<time>2024-05-30T13:37:24Z</time>
					</trkpt>
					<trkpt lat="49.060470" lon="2.331750">
						<ele>107</ele>
						<time>2024-05-30T13:37:28Z</time>
					</trkpt>
					<trkpt lat="49.060520" lon="2.331610">
						<ele>107</ele>
						<time>2024-05-30T13:37:30Z</time>
					</trkpt>
					<trkpt lat="49.060540" lon="2.331420">
						<ele>107</ele>
						<time>2024-05-30T13:37:32Z</time>
					</trkpt>
					<trkpt lat="49.060550" lon="2.331020">
						<ele>106</ele>
						<time>2024-05-30T13:37:37Z</time>
					</trkpt>
					<trkpt lat="49.060560" lon="2.330410">
						<ele>105</ele>
						<time>2024-05-30T13:37:44Z</time>
					</trkpt>
					<trkpt lat="49.060650" lon="2.329790">
						<ele>104</ele>
						<time>2024-05-30T13:37:51Z</time>
					</trkpt>
					<trkpt lat="49.060920" lon="2.328490">
						<ele>101</ele>
						<time>2024-05-30T13:38:07Z</time>
					</trkpt>
					<trkpt lat="49.061120" lon="2.327630">
						<ele>99</ele>
						<time>2024-05-30T13:38:18Z</time>
					</trkpt>
					<trkpt lat="49.061210" lon="2.327050">
						<ele>98</ele>
						<time>2024-05-30T13:38:25Z</time>
					</trkpt>
					<trkpt lat="49.061270" lon="2.326120">
						<ele>96</ele>
						<time>2024-05-30T13:38:36Z</time>
					</trkpt>
					<trkpt lat="49.061290" lon="2.325930">
						<ele>95</ele>
						<time>2024-05-30T13:38:38Z</time>
					</trkpt>
					<trkpt lat="49.061590" lon="2.323980">
						<ele>97</ele>
						<time>2024-05-30T13:39:01Z</time>
					</trkpt>
					<trkpt lat="49.061620" lon="2.322600">
						<ele>103</ele>
						<time>2024-05-30T13:39:17Z</time>
					</trkpt>
					<trkpt lat="49.061750" lon="2.320560">
						<ele>105</ele>
						<time>2024-05-30T13:39:41Z</time>
					</trkpt>
					<trkpt lat="49.061760" lon="2.319160">
						<ele>107</ele>
						<time>2024-05-30T13:39:58Z</time>
					</trkpt>
					<trkpt lat="49.061650" lon="2.316390">
						<ele>108</ele>
						<time>2024-05-30T13:40:30Z</time>
					</trkpt>
					<trkpt lat="49.061590" lon="2.315320">
						<ele>109</ele>
						<time>2024-05-30T13:40:42Z</time>
					</trkpt>
					<trkpt lat="49.061540" lon="2.314830">
						<ele>109</ele>
						<time>2024-05-30T13:40:48Z</time>
					</trkpt>
					<trkpt lat="49.061480" lon="2.314270">
						<ele>110</ele>
						<time>2024-05-30T13:40:55Z</time>
					</trkpt>
					<trkpt lat="49.061320" lon="2.313180">
						<ele>111</ele>
						<time>2024-05-30T13:41:08Z</time>
					</trkpt>
					<trkpt lat="49.061130" lon="2.312090">
						<ele>110</ele>
						<time>2024-05-30T13:41:21Z</time>
					</trkpt>
					<trkpt lat="49.060940" lon="2.311230">
						<ele>108</ele>
						<time>2024-05-30T13:41:32Z</time>
					</trkpt>
					<trkpt lat="49.060830" lon="2.310890">
						<ele>108</ele>
						<time>2024-05-30T13:41:36Z</time>
					</trkpt>
					<trkpt lat="49.060390" lon="2.309700">
						<ele>104</ele>
						<time>2024-05-30T13:41:52Z</time>
					</trkpt>
					<trkpt lat="49.060270" lon="2.309020">
						<ele>104</ele>
						<time>2024-05-30T13:42:00Z</time>
					</trkpt>
					<trkpt lat="49.060070" lon="2.308190">
						<ele>103</ele>
						<time>2024-05-30T13:42:10Z</time>
					</trkpt>
					<trkpt lat="49.058890" lon="2.303870">
						<ele>99</ele>
						<time>2024-05-30T13:43:05Z</time>
					</trkpt>
					<trkpt lat="49.058580" lon="2.302780">
						<ele>99</ele>
						<time>2024-05-30T13:43:19Z</time>
					</trkpt>
					<trkpt lat="49.058260" lon="2.301760">
						<ele>99</ele>
						<time>2024-05-30T13:43:32Z</time>
					</trkpt>
					<trkpt lat="49.058110" lon="2.301090">
						<ele>100</ele>
						<time>2024-05-30T13:43:40Z</time>
					</trkpt>
					<trkpt lat="49.057650" lon="2.299420">
						<ele>101</ele>
						<time>2024-05-30T13:44:01Z</time>
					</trkpt>
					<trkpt lat="49.057530" lon="2.298930">
						<ele>100</ele>
						<time>2024-05-30T13:44:07Z</time>
					</trkpt>
					<trkpt lat="49.057190" lon="2.297170">
						<ele>103</ele>
						<time>2024-05-30T13:44:29Z</time>
					</trkpt>
					<trkpt lat="49.057150" lon="2.297070">
						<ele>103</ele>
						<time>2024-05-30T13:44:30Z</time>
					</trkpt>
					<trkpt lat="49.057070" lon="2.297140">
						<ele>103</ele>
						<time>2024-05-30T13:44:32Z</time>
					</trkpt>
					<trkpt lat="49.056850" lon="2.297150">
						<ele>103</ele>
						<time>2024-05-30T13:44:36Z</time>
					</trkpt>
					<trkpt lat="49.056430" lon="2.297150">
						<ele>103</ele>
						<time>2024-05-30T13:44:43Z</time>
					</trkpt>
					<trkpt lat="49.054480" lon="2.297070">
						<ele>105</ele>
						<time>2024-05-30T13:45:18Z</time>
					</trkpt>
					<trkpt lat="49.054220" lon="2.297090">
						<ele>104</ele>
						<time>2024-05-30T13:45:23Z</time>
					</trkpt>
					<trkpt lat="49.054090" lon="2.297130">
						<ele>104</ele>
						<time>2024-05-30T13:45:25Z</time>
					</trkpt>
					<trkpt lat="49.052000" lon="2.298620">
						<ele>105</ele>
						<time>2024-05-30T13:46:06Z</time>
					</trkpt>
					<trkpt lat="49.051200" lon="2.299460">
						<ele>105</ele>
						<time>2024-05-30T13:46:23Z</time>
					</trkpt>
					<trkpt lat="49.051030" lon="2.299580">
						<ele>105</ele>
						<time>2024-05-30T13:46:27Z</time>
					</trkpt>
					<trkpt lat="49.050300" lon="2.299880">
						<ele>107</ele>
						<time>2024-05-30T13:46:40Z</time>
					</trkpt>
					<trkpt lat="49.048780" lon="2.300790">
						<ele>113</ele>
						<time>2024-05-30T13:47:09Z</time>
					</trkpt>
					<trkpt lat="49.048720" lon="2.300800">
						<ele>113</ele>
						<time>2024-05-30T13:47:10Z</time>
					</trkpt>
					<trkpt lat="49.048580" lon="2.300720">
						<ele>115</ele>
						<time>2024-05-30T13:47:13Z</time>
					</trkpt>
					<trkpt lat="49.048470" lon="2.300580">
						<ele>116</ele>
						<time>2024-05-30T13:47:15Z</time>
					</trkpt>
					<trkpt lat="49.046600" lon="2.298150">
						<ele>117</ele>
						<time>2024-05-30T13:47:59Z</time>
					</trkpt>
					<trkpt lat="49.045690" lon="2.297350">
						<ele>122</ele>
						<time>2024-05-30T13:48:18Z</time>
					</trkpt>
					<trkpt lat="49.045180" lon="2.297120">
						<ele>125</ele>
						<time>2024-05-30T13:48:27Z</time>
					</trkpt>
					<trkpt lat="49.043990" lon="2.296070">
						<ele>135</ele>
						<time>2024-05-30T13:48:52Z</time>
					</trkpt>
					<trkpt lat="49.043910" lon="2.296070">
						<ele>135</ele>
						<time>2024-05-30T13:48:53Z</time>
					</trkpt>
					<trkpt lat="49.043760" lon="2.296240">
						<ele>135</ele>
						<time>2024-05-30T13:48:56Z</time>
					</trkpt>
					<trkpt lat="49.043680" lon="2.296250">
						<ele>136</ele>
						<time>2024-05-30T13:48:58Z</time>
					</trkpt>
					<trkpt lat="49.043660" lon="2.296220">
						<ele>136</ele>
						<time>2024-05-30T13:48:58Z</time>
					</trkpt>
					<trkpt lat="49.043620" lon="2.296200">
						<ele>137</ele>
						<time>2024-05-30T13:48:59Z</time>
					</trkpt>
					<trkpt lat="49.043590" lon="2.296250">
						<ele>137</ele>
						<time>2024-05-30T13:49:00Z</time>
					</trkpt>
					<trkpt lat="49.043490" lon="2.296200">
						<ele>138</ele>
						<time>2024-05-30T13:49:02Z</time>
					</trkpt>
					<trkpt lat="49.043590" lon="2.296250">
						<ele>137</ele>
						<time>2024-05-30T13:49:04Z</time>
					</trkpt>
					<trkpt lat="49.043600" lon="2.296310">
						<ele>136</ele>
						<time>2024-05-30T13:49:04Z</time>
					</trkpt>
					<trkpt lat="49.043620" lon="2.296340">
						<ele>136</ele>
						<time>2024-05-30T13:49:05Z</time>
					</trkpt>
					<trkpt lat="49.043150" lon="2.297990">
						<ele>130</ele>
						<time>2024-05-30T13:49:26Z</time>
					</trkpt>
					<trkpt lat="49.043090" lon="2.298230">
						<ele>129</ele>
						<time>2024-05-30T13:49:29Z</time>
					</trkpt>
					<trkpt lat="49.043040" lon="2.298670">
						<ele>128</ele>
						<time>2024-05-30T13:49:34Z</time>
					</trkpt>
					<trkpt lat="49.043030" lon="2.298980">
						<ele>127</ele>
						<time>2024-05-30T13:49:38Z</time>
					</trkpt>
					<trkpt lat="49.042970" lon="2.299760">
						<ele>125</ele>
						<time>2024-05-30T13:49:47Z</time>
					</trkpt>
					<trkpt lat="49.042830" lon="2.300610">
						<ele>121</ele>
						<time>2024-05-30T13:49:57Z</time>
					</trkpt>
					<trkpt lat="49.042820" lon="2.300940">
						<ele>120</ele>
						<time>2024-05-30T13:50:01Z</time>
					</trkpt>
					<trkpt lat="49.042840" lon="2.301820">
						<ele>116</ele>
						<time>2024-05-30T13:50:11Z</time>
					</trkpt>
					<trkpt lat="49.042760" lon="2.302890">
						<ele>115</ele>
						<time>2024-05-30T13:50:24Z</time>
					</trkpt>
					<trkpt lat="49.042690" lon="2.303320">
						<ele>114</ele>
						<time>2024-05-30T13:50:29Z</time>
					</trkpt>
					<trkpt lat="49.042480" lon="2.304090">
						<ele>114</ele>
						<time>2024-05-30T13:50:39Z</time>
					</trkpt>
					<trkpt lat="49.042450" lon="2.304260">
						<ele>115</ele>
						<time>2024-05-30T13:50:41Z</time>
					</trkpt>
					<trkpt lat="49.042320" lon="2.304670">
						<ele>116</ele>
						<time>2024-05-30T13:50:46Z</time>
					</trkpt>
					<trkpt lat="49.041950" lon="2.306000">
						<ele>121</ele>
						<time>2024-05-30T13:51:03Z</time>
					</trkpt>
					<trkpt lat="49.041890" lon="2.306370">
						<ele>121</ele>
						<time>2024-05-30T13:51:07Z</time>
					</trkpt>
					<trkpt lat="49.041850" lon="2.306460">
						<ele>121</ele>
						<time>2024-05-30T13:51:09Z</time>
					</trkpt>
					<trkpt lat="49.041330" lon="2.307360">
						<ele>120</ele>
						<time>2024-05-30T13:51:23Z</time>
					</trkpt>
					<trkpt lat="49.041240" lon="2.307550">
						<ele>119</ele>
						<time>2024-05-30T13:51:25Z</time>
					</trkpt>
					<trkpt lat="49.041100" lon="2.307920">
						<ele>117</ele>
						<time>2024-05-30T13:51:30Z</time>
					</trkpt>
					<trkpt lat="49.040650" lon="2.309240">
						<ele>114</ele>
						<time>2024-05-30T13:51:48Z</time>
					</trkpt>
					<trkpt lat="49.040540" lon="2.309520">
						<ele>114</ele>
						<time>2024-05-30T13:51:51Z</time>
					</trkpt>
					<trkpt lat="49.040370" lon="2.309870">
						<ele>114</ele>
						<time>2024-05-30T13:51:57Z</time>
					</trkpt>
					<trkpt lat="49.040280" lon="2.309990">
						<ele>115</ele>
						<time>2024-05-30T13:51:59Z</time>
					</trkpt>
					<trkpt lat="49.040000" lon="2.310250">
						<ele>115</ele>
						<time>2024-05-30T13:52:05Z</time>
					</trkpt>
					<trkpt lat="49.039350" lon="2.310670">
						<ele>113</ele>
						<time>2024-05-30T13:52:17Z</time>
					</trkpt>
					<trkpt lat="49.038810" lon="2.311070">
						<ele>114</ele>
						<time>2024-05-30T13:52:28Z</time>
					</trkpt>
					<trkpt lat="49.038490" lon="2.311320">
						<ele>115</ele>
						<time>2024-05-30T13:52:34Z</time>
					</trkpt>
					<trkpt lat="49.037770" lon="2.311960">
						<ele>114</ele>
						<time>2024-05-30T13:52:49Z</time>
					</trkpt>
					<trkpt lat="49.037420" lon="2.312230">
						<ele>114</ele>
						<time>2024-05-30T13:52:56Z</time>
					</trkpt>
					<trkpt lat="49.037150" lon="2.312060">
						<ele>115</ele>
						<time>2024-05-30T13:53:01Z</time>
					</trkpt>
					<trkpt lat="49.036890" lon="2.311960">
						<ele>116</ele>
						<time>2024-05-30T13:53:06Z</time>
					</trkpt>
					<trkpt lat="49.033670" lon="2.310930">
						<ele>131</ele>
						<time>2024-05-30T13:54:04Z</time>
					</trkpt>
					<trkpt lat="49.033220" lon="2.310670">
						<ele>136</ele>
						<time>2024-05-30T13:54:13Z</time>
					</trkpt>
					<trkpt lat="49.033090" lon="2.310580">
						<ele>138</ele>
						<time>2024-05-30T13:54:16Z</time>
					</trkpt>
					<trkpt lat="49.032710" lon="2.310200">
						<ele>143</ele>
						<time>2024-05-30T13:54:24Z</time>
					</trkpt>
					<trkpt lat="49.032450" lon="2.309900">
						<ele>146</ele>
						<time>2024-05-30T13:54:29Z</time>
					</trkpt>
					<trkpt lat="49.031520" lon="2.308470">
						<ele>153</ele>
						<time>2024-05-30T13:54:53Z</time>
					</trkpt>
					<trkpt lat="49.031360" lon="2.308330">
						<ele>153</ele>
						<time>2024-05-30T13:54:56Z</time>
					</trkpt>
					<trkpt lat="49.031200" lon="2.308220">
						<ele>154</ele>
						<time>2024-05-30T13:54:59Z</time>
					</trkpt>
					<trkpt lat="49.031070" lon="2.308170">
						<ele>155</ele>
						<time>2024-05-30T13:55:02Z</time>
					</trkpt>
					<trkpt lat="49.030870" lon="2.308160">
						<ele>155</ele>
						<time>2024-05-30T13:55:05Z</time>
					</trkpt>
					<trkpt lat="49.030680" lon="2.308190">
						<ele>156</ele>
						<time>2024-05-30T13:55:09Z</time>
					</trkpt>
					<trkpt lat="49.030530" lon="2.308270">
						<ele>156</ele>
						<time>2024-05-30T13:55:12Z</time>
					</trkpt>
					<trkpt lat="49.029580" lon="2.309300">
						<ele>159</ele>
						<time>2024-05-30T13:55:32Z</time>
					</trkpt>
					<trkpt lat="49.029170" lon="2.309830">
						<ele>158</ele>
						<time>2024-05-30T13:55:42Z</time>
					</trkpt>
					<trkpt lat="49.028820" lon="2.310130">
						<ele>158</ele>
						<time>2024-05-30T13:55:49Z</time>
					</trkpt>
					<trkpt lat="49.028640" lon="2.310300">
						<ele>158</ele>
						<time>2024-05-30T13:55:53Z</time>
					</trkpt>
					<trkpt lat="49.028480" lon="2.310550">
						<ele>157</ele>
						<time>2024-05-30T13:55:57Z</time>
					</trkpt>
					<trkpt lat="49.028200" lon="2.311230">
						<ele>156</ele>
						<time>2024-05-30T13:56:06Z</time>
					</trkpt>
					<trkpt lat="49.028100" lon="2.311420">
						<ele>156</ele>
						<time>2024-05-30T13:56:09Z</time>
					</trkpt>
					<trkpt lat="49.027870" lon="2.311710">
						<ele>154</ele>
						<time>2024-05-30T13:56:14Z</time>
					</trkpt>
					<trkpt lat="49.027730" lon="2.311820">
						<ele>154</ele>
						<time>2024-05-30T13:56:17Z</time>
					</trkpt>
					<trkpt lat="49.027520" lon="2.311940">
						<ele>154</ele>
						<time>2024-05-30T13:56:21Z</time>
					</trkpt>
					<trkpt lat="49.027380" lon="2.311980">
						<ele>153</ele>
						<time>2024-05-30T13:56:24Z</time>
					</trkpt>
					<trkpt lat="49.027140" lon="2.311990">
						<ele>153</ele>
						<time>2024-05-30T13:56:28Z</time>
					</trkpt>
					<trkpt lat="49.026860" lon="2.311950">
						<ele>152</ele>
						<time>2024-05-30T13:56:33Z</time>
					</trkpt>
					<trkpt lat="49.026610" lon="2.311860">
						<ele>151</ele>
						<time>2024-05-30T13:56:38Z</time>
					</trkpt>
					<trkpt lat="49.026330" lon="2.311540">
						<ele>149</ele>
						<time>2024-05-30T13:56:44Z</time>
					</trkpt>
					<trkpt lat="49.026220" lon="2.311440">
						<ele>148</ele>
						<time>2024-05-30T13:56:46Z</time>
					</trkpt>
					<trkpt lat="49.026170" lon="2.311350">
						<ele>148</ele>
						<time>2024-05-30T13:56:47Z</time>
					</trkpt>
					<trkpt lat="49.026110" lon="2.311300">
						<ele>147</ele>
						<time>2024-05-30T13:56:49Z</time>
					</trkpt>
					<trkpt lat="49.026060" lon="2.311340">
						<ele>147</ele>
						<time>2024-05-30T13:56:50Z</time>
					</trkpt>
					<trkpt lat="49.025930" lon="2.311590">
						<ele>146</ele>
						<time>2024-05-30T13:56:53Z</time>
					</trkpt>
					<trkpt lat="49.025700" lon="2.312320">
						<ele>148</ele>
						<time>2024-05-30T13:57:03Z</time>
					</trkpt>
					<trkpt lat="49.025510" lon="2.313040">
						<ele>148</ele>
						<time>2024-05-30T13:57:12Z</time>
					</trkpt>
					<trkpt lat="49.025300" lon="2.314030">
						<ele>151</ele>
						<time>2024-05-30T13:57:24Z</time>
					</trkpt>
					<trkpt lat="49.025220" lon="2.314560">
						<ele>152</ele>
						<time>2024-05-30T13:57:30Z</time>
					</trkpt>
					<trkpt lat="49.025170" lon="2.315090">
						<ele>153</ele>
						<time>2024-05-30T13:57:37Z</time>
					</trkpt>
					<trkpt lat="49.025140" lon="2.316380">
						<ele>153</ele>
						<time>2024-05-30T13:57:52Z</time>
					</trkpt>
					<trkpt lat="49.025050" lon="2.316920">
						<ele>153</ele>
						<time>2024-05-30T13:57:58Z</time>
					</trkpt>
					<trkpt lat="49.025030" lon="2.317300">
						<ele>153</ele>
						<time>2024-05-30T13:58:03Z</time>
					</trkpt>
					<trkpt lat="49.025050" lon="2.318630">
						<ele>149</ele>
						<time>2024-05-30T13:58:18Z</time>
					</trkpt>
					<trkpt lat="49.025040" lon="2.319000">
						<ele>148</ele>
						<time>2024-05-30T13:58:22Z</time>
					</trkpt>
					<trkpt lat="49.024920" lon="2.319810">
						<ele>144</ele>
						<time>2024-05-30T13:58:32Z</time>
					</trkpt>
					<trkpt lat="49.024900" lon="2.320010">
						<ele>143</ele>
						<time>2024-05-30T13:58:34Z</time>
					</trkpt>
					<trkpt lat="49.024910" lon="2.320280">
						<ele>143</ele>
						<time>2024-05-30T13:58:38Z</time>
					</trkpt>
					<trkpt lat="49.025080" lon="2.321100">
						<ele>140</ele>
						<time>2024-05-30T13:58:48Z</time>
					</trkpt>
					<trkpt lat="49.025120" lon="2.321180">
						<ele>140</ele>
						<time>2024-05-30T13:58:49Z</time>
					</trkpt>
					<trkpt lat="49.025140" lon="2.321380">
						<ele>139</ele>
						<time>2024-05-30T13:58:51Z</time>
					</trkpt>
					<trkpt lat="49.025180" lon="2.321500">
						<ele>139</ele>
						<time>2024-05-30T13:58:53Z</time>
					</trkpt>
					<trkpt lat="49.025180" lon="2.321600">
						<ele>139</ele>
						<time>2024-05-30T13:58:54Z</time>
					</trkpt>
					<trkpt lat="49.025260" lon="2.322090">
						<ele>139</ele>
						<time>2024-05-30T13:59:00Z</time>
					</trkpt>
					<trkpt lat="49.025290" lon="2.322460">
						<ele>140</ele>
						<time>2024-05-30T13:59:04Z</time>
					</trkpt>
					<trkpt lat="49.025290" lon="2.323130">
						<ele>142</ele>
						<time>2024-05-30T13:59:12Z</time>
					</trkpt>
					<trkpt lat="49.025280" lon="2.323260">
						<ele>143</ele>
						<time>2024-05-30T13:59:14Z</time>
					</trkpt>
					<trkpt lat="49.025020" lon="2.324490">
						<ele>149</ele>
						<time>2024-05-30T13:59:29Z</time>
					</trkpt>
					<trkpt lat="49.024960" lon="2.324700">
						<ele>151</ele>
						<time>2024-05-30T13:59:31Z</time>
					</trkpt>
					<trkpt lat="49.024740" lon="2.325640">
						<ele>153</ele>
						<time>2024-05-30T13:59:43Z</time>
					</trkpt>
					<trkpt lat="49.023840" lon="2.324540">
						<ele>160</ele>
						<time>2024-05-30T14:00:03Z</time>
					</trkpt>
					<trkpt lat="49.023460" lon="2.324170">
						<ele>165</ele>
						<time>2024-05-30T14:00:11Z</time>
					</trkpt>
					<trkpt lat="49.023350" lon="2.324130">
						<ele>166</ele>
						<time>2024-05-30T14:00:13Z</time>
					</trkpt>
					<trkpt lat="49.023350" lon="2.324080">
						<ele>166</ele>
						<time>2024-05-30T14:00:14Z</time>
					</trkpt>
					<trkpt lat="49.023320" lon="2.324000">
						<ele>166</ele>
						<time>2024-05-30T14:00:15Z</time>
					</trkpt>
					<trkpt lat="49.023290" lon="2.323980">
						<ele>167</ele>
						<time>2024-05-30T14:00:16Z</time>
					</trkpt>
					<trkpt lat="49.023230" lon="2.323970">
						<ele>167</ele>
						<time>2024-05-30T14:00:17Z</time>
					</trkpt>
					<trkpt lat="49.023110" lon="2.323910">
						<ele>168</ele>
						<time>2024-05-30T14:00:19Z</time>
					</trkpt>
					<trkpt lat="49.022750" lon="2.323560">
						<ele>171</ele>
						<time>2024-05-30T14:00:27Z</time>
					</trkpt>
					<trkpt lat="49.022460" lon="2.323230">
						<ele>174</ele>
						<time>2024-05-30T14:00:33Z</time>
					</trkpt>
					<trkpt lat="49.021870" lon="2.322420">
						<ele>178</ele>
						<time>2024-05-30T14:00:47Z</time>
					</trkpt>
					<trkpt lat="49.020770" lon="2.321170">
						<ele>182</ele>
						<time>2024-05-30T14:01:12Z</time>
					</trkpt>
					<trkpt lat="49.020640" lon="2.320990">
						<ele>182</ele>
						<time>2024-05-30T14:01:15Z</time>
					</trkpt>
					<trkpt lat="49.020060" lon="2.319230">
						<ele>187</ele>
						<time>2024-05-30T14:01:38Z</time>
					</trkpt>
					<trkpt lat="49.019440" lon="2.317970">
						<ele>183</ele>
						<time>2024-05-30T14:01:56Z</time>
					</trkpt>
					<trkpt lat="49.018900" lon="2.316960">
						<ele>183</ele>
						<time>2024-05-30T14:02:11Z</time>
					</trkpt>
					<trkpt lat="49.018260" lon="2.315410">
						<ele>184</ele>
						<time>2024-05-30T14:02:33Z</time>
					</trkpt>
					<trkpt lat="49.017910" lon="2.314640">
						<ele>184</ele>
						<time>2024-05-30T14:02:44Z</time>
					</trkpt>
					<trkpt lat="49.017630" lon="2.314130">
						<ele>184</ele>
						<time>2024-05-30T14:02:51Z</time>
					</trkpt>
					<trkpt lat="49.017500" lon="2.313960">
						<ele>183</ele>
						<time>2024-05-30T14:02:54Z</time>
					</trkpt>
					<trkpt lat="49.017060" lon="2.313500">
						<ele>181</ele>
						<time>2024-05-30T14:03:04Z</time>
					</trkpt>
					<trkpt lat="49.016770" lon="2.313230">
						<ele>180</ele>
						<time>2024-05-30T14:03:10Z</time>
					</trkpt>
					<trkpt lat="49.016530" lon="2.313030">
						<ele>179</ele>
						<time>2024-05-30T14:03:15Z</time>
					</trkpt>
					<trkpt lat="49.016300" lon="2.312890">
						<ele>178</ele>
						<time>2024-05-30T14:03:19Z</time>
					</trkpt>
					<trkpt lat="49.016000" lon="2.312770">
						<ele>177</ele>
						<time>2024-05-30T14:03:25Z</time>
					</trkpt>
					<trkpt lat="49.015810" lon="2.312740">
						<ele>176</ele>
						<time>2024-05-30T14:03:28Z</time>
					</trkpt>
					<trkpt lat="49.015390" lon="2.312710">
						<ele>175</ele>
						<time>2024-05-30T14:03:36Z</time>
					</trkpt>
					<trkpt lat="49.014700" lon="2.312750">
						<ele>175</ele>
						<time>2024-05-30T14:03:48Z</time>
					</trkpt>
					<trkpt lat="49.014470" lon="2.312700">
						<ele>176</ele>
						<time>2024-05-30T14:03:52Z</time>
					</trkpt>
					<trkpt lat="49.014060" lon="2.312470">
						<ele>176</ele>
						<time>2024-05-30T14:04:00Z</time>
					</trkpt>
					<trkpt lat="49.013280" lon="2.311860">
						<ele>173</ele>
						<time>2024-05-30T14:04:15Z</time>
					</trkpt>
					<trkpt lat="49.012870" lon="2.311630">
						<ele>173</ele>
						<time>2024-05-30T14:04:23Z</time>
					</trkpt>
					<trkpt lat="49.012020" lon="2.311400">
						<ele>170</ele>
						<time>2024-05-30T14:04:39Z</time>
					</trkpt>
					<trkpt lat="49.011800" lon="2.311410">
						<ele>169</ele>
						<time>2024-05-30T14:04:42Z</time>
					</trkpt>
					<trkpt lat="49.011580" lon="2.311530">
						<ele>168</ele>
						<time>2024-05-30T14:04:47Z</time>
					</trkpt>
					<trkpt lat="49.011240" lon="2.311900">
						<ele>166</ele>
						<time>2024-05-30T14:04:54Z</time>
					</trkpt>
					<trkpt lat="49.011040" lon="2.312030">
						<ele>165</ele>
						<time>2024-05-30T14:04:58Z</time>
					</trkpt>
					<trkpt lat="49.010370" lon="2.312210">
						<ele>165</ele>
						<time>2024-05-30T14:05:10Z</time>
					</trkpt>
					<trkpt lat="49.009940" lon="2.312240">
						<ele>165</ele>
						<time>2024-05-30T14:05:18Z</time>
					</trkpt>
					<trkpt lat="49.009720" lon="2.312300">
						<ele>165</ele>
						<time>2024-05-30T14:05:22Z</time>
					</trkpt>
					<trkpt lat="49.009550" lon="2.312450">
						<ele>165</ele>
						<time>2024-05-30T14:05:25Z</time>
					</trkpt>
					<trkpt lat="49.009430" lon="2.312590">
						<ele>165</ele>
						<time>2024-05-30T14:05:28Z</time>
					</trkpt>
					<trkpt lat="49.008900" lon="2.313270">
						<ele>166</ele>
						<time>2024-05-30T14:05:40Z</time>
					</trkpt>
					<trkpt lat="49.008730" lon="2.313420">
						<ele>166</ele>
						<time>2024-05-30T14:05:44Z</time>
					</trkpt>
					<trkpt lat="49.007840" lon="2.314030">
						<ele>167</ele>
						<time>2024-05-30T14:06:01Z</time>
					</trkpt>
					<trkpt lat="49.007290" lon="2.314630">
						<ele>167</ele>
						<time>2024-05-30T14:06:13Z</time>
					</trkpt>
					<trkpt lat="49.007190" lon="2.314780">
						<ele>167</ele>
						<time>2024-05-30T14:06:16Z</time>
					</trkpt>
					<trkpt lat="49.007090" lon="2.314870">
						<ele>167</ele>
						<time>2024-05-30T14:06:18Z</time>
					</trkpt>
					<trkpt lat="49.007020" lon="2.314920">
						<ele>167</ele>
						<time>2024-05-30T14:06:19Z</time>
					</trkpt>
					<trkpt lat="49.006890" lon="2.315070">
						<ele>167</ele>
						<time>2024-05-30T14:06:22Z</time>
					</trkpt>
					<trkpt lat="49.006860" lon="2.315140">
						<ele>167</ele>
						<time>2024-05-30T14:06:23Z</time>
					</trkpt>
					<trkpt lat="49.006120" lon="2.315960">
						<ele>167</ele>
						<time>2024-05-30T14:06:39Z</time>
					</trkpt>
					<trkpt lat="49.005220" lon="2.317240">
						<ele>168</ele>
						<time>2024-05-30T14:07:01Z</time>
					</trkpt>
					<trkpt lat="49.004960" lon="2.317530">
						<ele>168</ele>
						<time>2024-05-30T14:07:07Z</time>
					</trkpt>
					<trkpt lat="49.003880" lon="2.318390">
						<ele>168</ele>
						<time>2024-05-30T14:07:28Z</time>
					</trkpt>
					<trkpt lat="49.003310" lon="2.318820">
						<ele>169</ele>
						<time>2024-05-30T14:07:40Z</time>
					</trkpt>
					<trkpt lat="49.003010" lon="2.318970">
						<ele>168</ele>
						<time>2024-05-30T14:07:45Z</time>
					</trkpt>
					<trkpt lat="49.002250" lon="2.319090">
						<ele>168</ele>
						<time>2024-05-30T14:07:59Z</time>
					</trkpt>
					<trkpt lat="49.002010" lon="2.319180">
						<ele>168</ele>
						<time>2024-05-30T14:08:03Z</time>
					</trkpt>
					<trkpt lat="49.001800" lon="2.319290">
						<ele>168</ele>
						<time>2024-05-30T14:08:07Z</time>
					</trkpt>
					<trkpt lat="49.001080" lon="2.319940">
						<ele>168</ele>
						<time>2024-05-30T14:08:22Z</time>
					</trkpt>
					<trkpt lat="49.000950" lon="2.320060">
						<ele>168</ele>
						<time>2024-05-30T14:08:25Z</time>
					</trkpt>
					<trkpt lat="49.000830" lon="2.320230">
						<ele>169</ele>
						<time>2024-05-30T14:08:28Z</time>
					</trkpt>
					<trkpt lat="49.000770" lon="2.320260">
						<ele>169</ele>
						<time>2024-05-30T14:08:29Z</time>
					</trkpt>
					<trkpt lat="49.000710" lon="2.320290">
						<ele>169</ele>
						<time>2024-05-30T14:08:30Z</time>
					</trkpt>
					<trkpt lat="49.000600" lon="2.320490">
						<ele>170</ele>
						<time>2024-05-30T14:08:33Z</time>
					</trkpt>
					<trkpt lat="49.000060" lon="2.321250">
						<ele>172</ele>
						<time>2024-05-30T14:08:46Z</time>
					</trkpt>
					<trkpt lat="48.999860" lon="2.321560">
						<ele>172</ele>
						<time>2024-05-30T14:08:51Z</time>
					</trkpt>
					<trkpt lat="48.999790" lon="2.321660">
						<ele>172</ele>
						<time>2024-05-30T14:08:53Z</time>
					</trkpt>
					<trkpt lat="48.999750" lon="2.321690">
						<ele>172</ele>
						<time>2024-05-30T14:08:54Z</time>
					</trkpt>
					<trkpt lat="48.999610" lon="2.321850">
						<ele>172</ele>
						<time>2024-05-30T14:08:57Z</time>
					</trkpt>
					<trkpt lat="48.999310" lon="2.321960">
						<ele>172</ele>
						<time>2024-05-30T14:09:02Z</time>
					</trkpt>
					<trkpt lat="48.998390" lon="2.322110">
						<ele>172</ele>
						<time>2024-05-30T14:09:19Z</time>
					</trkpt>
					<trkpt lat="48.998230" lon="2.322110">
						<ele>171</ele>
						<time>2024-05-30T14:09:22Z</time>
					</trkpt>
					<trkpt lat="48.998070" lon="2.322190">
						<ele>170</ele>
						<time>2024-05-30T14:09:25Z</time>
					</trkpt>
					<trkpt lat="48.997960" lon="2.322350">
						<ele>170</ele>
						<time>2024-05-30T14:09:27Z</time>
					</trkpt>
					<trkpt lat="48.997890" lon="2.322520">
						<ele>169</ele>
						<time>2024-05-30T14:09:30Z</time>
					</trkpt>
					<trkpt lat="48.997290" lon="2.323590">
						<ele>163</ele>
						<time>2024-05-30T14:09:46Z</time>
					</trkpt>
					<trkpt lat="48.996850" lon="2.324220">
						<ele>161</ele>
						<time>2024-05-30T14:09:57Z</time>
					</trkpt>
					<trkpt lat="48.996460" lon="2.324650">
						<ele>159</ele>
						<time>2024-05-30T14:10:05Z</time>
					</trkpt>
					<trkpt lat="48.996300" lon="2.324890">
						<ele>157</ele>
						<time>2024-05-30T14:10:09Z</time>
					</trkpt>
					<trkpt lat="48.995910" lon="2.325570">
						<ele>153</ele>
						<time>2024-05-30T14:10:20Z</time>
					</trkpt>
					<trkpt lat="48.995760" lon="2.325860">
						<ele>152</ele>
						<time>2024-05-30T14:10:24Z</time>
					</trkpt>
					<trkpt lat="48.995690" lon="2.326150">
						<ele>151</ele>
						<time>2024-05-30T14:10:28Z</time>
					</trkpt>
					<trkpt lat="48.995680" lon="2.326360">
						<ele>152</ele>
						<time>2024-05-30T14:10:30Z</time>
					</trkpt>
					<trkpt lat="48.995680" lon="2.326860">
						<ele>153</ele>
						<time>2024-05-30T14:10:36Z</time>
					</trkpt>
					<trkpt lat="48.995660" lon="2.327030">
						<ele>153</ele>
						<time>2024-05-30T14:10:38Z</time>
					</trkpt>
					<trkpt lat="48.995620" lon="2.327110">
						<ele>152</ele>
						<time>2024-05-30T14:10:39Z</time>
					</trkpt>
					<trkpt lat="48.995550" lon="2.327150">
						<ele>151</ele>
						<time>2024-05-30T14:10:41Z</time>
					</trkpt>
					<trkpt lat="48.995450" lon="2.327140">
						<ele>150</ele>
						<time>2024-05-30T14:10:43Z</time>
					</trkpt>
					<trkpt lat="48.995390" lon="2.327080">
						<ele>149</ele>
						<time>2024-05-30T14:10:44Z</time>
					</trkpt>
					<trkpt lat="48.995350" lon="2.326990">
						<ele>148</ele>
						<time>2024-05-30T14:10:45Z</time>
					</trkpt>
					<trkpt lat="48.995340" lon="2.326830">
						<ele>147</ele>
						<time>2024-05-30T14:10:47Z</time>
					</trkpt>
					<trkpt lat="48.995410" lon="2.326550">
						<ele>147</ele>
						<time>2024-05-30T14:10:50Z</time>
					</trkpt>
					<trkpt lat="48.995440" lon="2.326370">
						<ele>148</ele>
						<time>2024-05-30T14:10:53Z</time>
					</trkpt>
					<trkpt lat="48.995440" lon="2.326240">
						<ele>147</ele>
						<time>2024-05-30T14:10:54Z</time>
					</trkpt>
					<trkpt lat="48.995410" lon="2.326100">
						<ele>147</ele>
						<time>2024-05-30T14:10:56Z</time>
					</trkpt>
					<trkpt lat="48.995370" lon="2.325980">
						<ele>146</ele>
						<time>2024-05-30T14:10:57Z</time>
					</trkpt>
					<trkpt lat="48.995090" lon="2.325490">
						<ele>142</ele>
						<time>2024-05-30T14:11:05Z</time>
					</trkpt>
					<trkpt lat="48.995010" lon="2.325310">
						<ele>142</ele>
						<time>2024-05-30T14:11:08Z</time>
					</trkpt>
					<trkpt lat="48.994950" lon="2.325090">
						<ele>142</ele>
						<time>2024-05-30T14:11:10Z</time>
					</trkpt>
					<trkpt lat="48.994800" lon="2.324490">
						<ele>140</ele>
						<time>2024-05-30T14:11:18Z</time>
					</trkpt>
					<trkpt lat="48.994760" lon="2.324410">
						<ele>139</ele>
						<time>2024-05-30T14:11:19Z</time>
					</trkpt>
					<trkpt lat="48.994630" lon="2.324340">
						<ele>138</ele>
						<time>2024-05-30T14:11:21Z</time>
					</trkpt>
					<trkpt lat="48.994490" lon="2.324300">
						<ele>137</ele>
						<time>2024-05-30T14:11:24Z</time>
					</trkpt>
					<trkpt lat="48.994210" lon="2.324150">
						<ele>135</ele>
						<time>2024-05-30T14:11:29Z</time>
					</trkpt>
					<trkpt lat="48.993960" lon="2.323980">
						<ele>134</ele>
						<time>2024-05-30T14:11:34Z</time>
					</trkpt>
					<trkpt lat="48.993250" lon="2.323450">
						<ele>132</ele>
						<time>2024-05-30T14:11:48Z</time>
					</trkpt>
					<trkpt lat="48.992420" lon="2.322520">
						<ele>132</ele>
						<time>2024-05-30T14:12:07Z</time>
					</trkpt>
					<trkpt lat="48.991810" lon="2.321940">
						<ele>130</ele>
						<time>2024-05-30T14:12:19Z</time>
					</trkpt>
					<trkpt lat="48.991650" lon="2.321800">
						<ele>130</ele>
						<time>2024-05-30T14:12:23Z</time>
					</trkpt>
					<trkpt lat="48.990860" lon="2.321340">
						<ele>131</ele>
						<time>2024-05-30T14:12:38Z</time>
					</trkpt>
					<trkpt lat="48.990780" lon="2.321310">
						<ele>131</ele>
						<time>2024-05-30T14:12:39Z</time>
					</trkpt>
					<trkpt lat="48.990510" lon="2.321300">
						<ele>130</ele>
						<time>2024-05-30T14:12:44Z</time>
					</trkpt>
					<trkpt lat="48.990460" lon="2.321350">
						<ele>130</ele>
						<time>2024-05-30T14:12:45Z</time>
					</trkpt>
					<trkpt lat="48.990410" lon="2.321470">
						<ele>130</ele>
						<time>2024-05-30T14:12:47Z</time>
					</trkpt>
					<trkpt lat="48.989940" lon="2.322820">
						<ele>126</ele>
						<time>2024-05-30T14:13:05Z</time>
					</trkpt>
					<trkpt lat="48.989940" lon="2.323000">
						<ele>125</ele>
						<time>2024-05-30T14:13:07Z</time>
					</trkpt>
					<trkpt lat="48.990030" lon="2.323700">
						<ele>124</ele>
						<time>2024-05-30T14:13:15Z</time>
					</trkpt>
					<trkpt lat="48.990050" lon="2.323910">
						<ele>125</ele>
						<time>2024-05-30T14:13:17Z</time>
					</trkpt>
					<trkpt lat="48.990020" lon="2.324160">
						<ele>125</ele>
						<time>2024-05-30T14:13:20Z</time>
					</trkpt>
					<trkpt lat="48.989460" lon="2.326920">
						<ele>125</ele>
						<time>2024-05-30T14:13:54Z</time>
					</trkpt>
					<trkpt lat="48.989300" lon="2.327220">
						<ele>125</ele>
						<time>2024-05-30T14:13:59Z</time>
					</trkpt>
					<trkpt lat="48.989230" lon="2.327320">
						<ele>126</ele>
						<time>2024-05-30T14:14:00Z</time>
					</trkpt>
					<trkpt lat="48.989100" lon="2.327440">
						<ele>126</ele>
						<time>2024-05-30T14:14:03Z</time>
					</trkpt>
					<trkpt lat="48.987330" lon="2.328360">
						<ele>124</ele>
						<time>2024-05-30T14:14:36Z</time>
					</trkpt>
					<trkpt lat="48.987130" lon="2.328420">
						<ele>124</ele>
						<time>2024-05-30T14:14:40Z</time>
					</trkpt>
					<trkpt lat="48.986210" lon="2.328500">
						<ele>122</ele>
						<time>2024-05-30T14:14:56Z</time>
					</trkpt>
					<trkpt lat="48.985820" lon="2.328510">
						<ele>121</ele>
						<time>2024-05-30T14:15:03Z</time>
					</trkpt>
					<trkpt lat="48.984710" lon="2.328470">
						<ele>120</ele>
						<time>2024-05-30T14:15:23Z</time>
					</trkpt>
					<trkpt lat="48.984450" lon="2.328430">
						<ele>120</ele>
						<time>2024-05-30T14:15:28Z</time>
					</trkpt>
					<trkpt lat="48.984330" lon="2.328370">
						<ele>119</ele>
						<time>2024-05-30T14:15:30Z</time>
					</trkpt>
					<trkpt lat="48.984220" lon="2.328260">
						<ele>119</ele>
						<time>2024-05-30T14:15:32Z</time>
					</trkpt>
					<trkpt lat="48.984040" lon="2.327940">
						<ele>119</ele>
						<time>2024-05-30T14:15:37Z</time>
					</trkpt>
					<trkpt lat="48.982140" lon="2.322410">
						<ele>103</ele>
						<time>2024-05-30T14:16:50Z</time>
					</trkpt>
					<trkpt lat="48.981900" lon="2.321740">
						<ele>100</ele>
						<time>2024-05-30T14:16:59Z</time>
					</trkpt>
					<trkpt lat="48.981740" lon="2.321460">
						<ele>99</ele>
						<time>2024-05-30T14:17:03Z</time>
					</trkpt>
					<trkpt lat="48.981570" lon="2.321240">
						<ele>97</ele>
						<time>2024-05-30T14:17:07Z</time>
					</trkpt>
					<trkpt lat="48.981510" lon="2.321170">
						<ele>96</ele>
						<time>2024-05-30T14:17:09Z</time>
					</trkpt>
					<trkpt lat="48.981480" lon="2.321050">
						<ele>96</ele>
						<time>2024-05-30T14:17:10Z</time>
					</trkpt>
					<trkpt lat="48.981460" lon="2.320940">
						<ele>95</ele>
						<time>2024-05-30T14:17:11Z</time>
					</trkpt>
					<trkpt lat="48.981350" lon="2.320790">
						<ele>94</ele>
						<time>2024-05-30T14:17:14Z</time>
					</trkpt>
					<trkpt lat="48.981200" lon="2.320720">
						<ele>93</ele>
						<time>2024-05-30T14:17:17Z</time>
					</trkpt>
					<trkpt lat="48.981150" lon="2.320640">
						<ele>92</ele>
						<time>2024-05-30T14:17:18Z</time>
					</trkpt>
					<trkpt lat="48.981010" lon="2.320240">
						<ele>90</ele>
						<time>2024-05-30T14:17:23Z</time>
					</trkpt>
					<trkpt lat="48.980860" lon="2.319470">
						<ele>88</ele>
						<time>2024-05-30T14:17:33Z</time>
					</trkpt>
					<trkpt lat="48.980750" lon="2.319130">
						<ele>87</ele>
						<time>2024-05-30T14:17:37Z</time>
					</trkpt>
					<trkpt lat="48.979700" lon="2.316920">
						<ele>76</ele>
						<time>2024-05-30T14:18:09Z</time>
					</trkpt>
					<trkpt lat="48.979690" lon="2.316850">
						<ele>76</ele>
						<time>2024-05-30T14:18:10Z</time>
					</trkpt>
					<trkpt lat="48.979700" lon="2.316750">
						<ele>76</ele>
						<time>2024-05-30T14:18:11Z</time>
					</trkpt>
					<trkpt lat="48.979720" lon="2.316680">
						<ele>76</ele>
						<time>2024-05-30T14:18:12Z</time>
					</trkpt>
					<trkpt lat="48.979710" lon="2.316630">
						<ele>76</ele>
						<time>2024-05-30T14:18:13Z</time>
					</trkpt>
					<trkpt lat="48.979540" lon="2.316400">
						<ele>75</ele>
						<time>2024-05-30T14:18:17Z</time>
					</trkpt>
					<trkpt lat="48.978680" lon="2.315080">
						<ele>71</ele>
						<time>2024-05-30T14:18:38Z</time>
					</trkpt>
					<trkpt lat="48.978210" lon="2.314260">
						<ele>68</ele>
						<time>2024-05-30T14:18:51Z</time>
					</trkpt>
					<trkpt lat="48.978060" lon="2.314060">
						<ele>67</ele>
						<time>2024-05-30T14:18:55Z</time>
					</trkpt>
					<trkpt lat="48.977630" lon="2.313790">
						<ele>65</ele>
						<time>2024-05-30T14:19:03Z</time>
					</trkpt>
					<trkpt lat="48.977450" lon="2.313630">
						<ele>64</ele>
						<time>2024-05-30T14:19:07Z</time>
					</trkpt>
					<trkpt lat="48.977320" lon="2.313550">
						<ele>63</ele>
						<time>2024-05-30T14:19:09Z</time>
					</trkpt>
					<trkpt lat="48.977130" lon="2.313450">
						<ele>61</ele>
						<time>2024-05-30T14:19:13Z</time>
					</trkpt>
					<trkpt lat="48.976940" lon="2.313370">
						<ele>60</ele>
						<time>2024-05-30T14:19:16Z</time>
					</trkpt>
					<trkpt lat="48.975920" lon="2.312770">
						<ele>56</ele>
						<time>2024-05-30T14:19:36Z</time>
					</trkpt>
					<trkpt lat="48.975910" lon="2.312610">
						<ele>56</ele>
						<time>2024-05-30T14:19:38Z</time>
					</trkpt>
					<trkpt lat="48.975860" lon="2.312460">
						<ele>56</ele>
						<time>2024-05-30T14:19:40Z</time>
					</trkpt>
					<trkpt lat="48.975780" lon="2.312310">
						<ele>56</ele>
						<time>2024-05-30T14:19:42Z</time>
					</trkpt>
					<trkpt lat="48.975640" lon="2.312140">
						<ele>56</ele>
						<time>2024-05-30T14:19:45Z</time>
					</trkpt>
					<trkpt lat="48.975220" lon="2.311770">
						<ele>55</ele>
						<time>2024-05-30T14:19:54Z</time>
					</trkpt>
					<trkpt lat="48.974790" lon="2.311570">
						<ele>54</ele>
						<time>2024-05-30T14:20:02Z</time>
					</trkpt>
					<trkpt lat="48.974310" lon="2.311380">
						<ele>53</ele>
						<time>2024-05-30T14:20:10Z</time>
					</trkpt>
					<trkpt lat="48.973830" lon="2.311080">
						<ele>52</ele>
						<time>2024-05-30T14:20:20Z</time>
					</trkpt>
					<trkpt lat="48.973310" lon="2.310680">
						<ele>52</ele>
						<time>2024-05-30T14:20:30Z</time>
					</trkpt>
					<trkpt lat="48.972760" lon="2.310150">
						<ele>53</ele>
						<time>2024-05-30T14:20:42Z</time>
					</trkpt>
					<trkpt lat="48.972410" lon="2.309630">
						<ele>53</ele>
						<time>2024-05-30T14:20:50Z</time>
					</trkpt>
					<trkpt lat="48.971990" lon="2.308960">
						<ele>52</ele>
						<time>2024-05-30T14:21:01Z</time>
					</trkpt>
					<trkpt lat="48.971920" lon="2.308780">
						<ele>52</ele>
						<time>2024-05-30T14:21:04Z</time>
					</trkpt>
					<trkpt lat="48.971910" lon="2.308630">
						<ele>52</ele>
						<time>2024-05-30T14:21:05Z</time>
					</trkpt>
					<trkpt lat="48.971890" lon="2.308540">
						<ele>52</ele>
						<time>2024-05-30T14:21:06Z</time>
					</trkpt>
					<trkpt lat="48.971730" lon="2.308270">
						<ele>52</ele>
						<time>2024-05-30T14:21:11Z</time>
					</trkpt>
					<trkpt lat="48.971870" lon="2.308020">
						<ele>52</ele>
						<time>2024-05-30T14:21:15Z</time>
					</trkpt>
					<trkpt lat="48.972670" lon="2.306870">
						<ele>50</ele>
						<time>2024-05-30T14:21:34Z</time>
					</trkpt>
					<trkpt lat="48.972840" lon="2.306570">
						<ele>49</ele>
						<time>2024-05-30T14:21:39Z</time>
					</trkpt>
					<trkpt lat="48.972270" lon="2.305770">
						<ele>48</ele>
						<time>2024-05-30T14:21:53Z</time>
					</trkpt>
					<trkpt lat="48.972150" lon="2.305670">
						<ele>48</ele>
						<time>2024-05-30T14:21:55Z</time>
					</trkpt>
					<trkpt lat="48.972020" lon="2.305420">
						<ele>47</ele>
						<time>2024-05-30T14:21:59Z</time>
					</trkpt>
					<trkpt lat="48.971730" lon="2.304990">
						<ele>46</ele>
						<time>2024-05-30T14:22:06Z</time>
					</trkpt>
					<trkpt lat="48.970720" lon="2.303540">
						<ele>44</ele>
						<time>2024-05-30T14:22:31Z</time>
					</trkpt>
					<trkpt lat="48.970640" lon="2.303360">
						<ele>43</ele>
						<time>2024-05-30T14:22:33Z</time>
					</trkpt>
					<trkpt lat="48.970630" lon="2.303260">
						<ele>43</ele>
						<time>2024-05-30T14:22:34Z</time>
					</trkpt>
					<trkpt lat="48.970580" lon="2.303220">
						<ele>42</ele>
						<time>2024-05-30T14:22:35Z</time>
					</trkpt>
					<trkpt lat="48.970480" lon="2.303260">
						<ele>43</ele>
						<time>2024-05-30T14:22:37Z</time>
					</trkpt>
					<trkpt lat="48.970420" lon="2.303280">
						<ele>43</ele>
						<time>2024-05-30T14:22:38Z</time>
					</trkpt>
					<trkpt lat="48.970350" lon="2.303350">
						<ele>43</ele>
						<time>2024-05-30T14:22:40Z</time>
					</trkpt>
					<trkpt lat="48.970160" lon="2.303420">
						<ele>43</ele>
						<time>2024-05-30T14:22:43Z</time>
					</trkpt>
					<trkpt lat="48.969900" lon="2.303640">
						<ele>43</ele>
						<time>2024-05-30T14:22:49Z</time>
					</trkpt>
					<trkpt lat="48.969720" lon="2.303840">
						<ele>43</ele>
						<time>2024-05-30T14:22:52Z</time>
					</trkpt>
					<trkpt lat="48.969190" lon="2.304830">
						<ele>46</ele>
						<time>2024-05-30T14:23:07Z</time>
					</trkpt>
					<trkpt lat="48.969070" lon="2.304910">
						<ele>46</ele>
						<time>2024-05-30T14:23:10Z</time>
					</trkpt>
					<trkpt lat="48.968950" lon="2.304890">
						<ele>45</ele>
						<time>2024-05-30T14:23:12Z</time>
					</trkpt>
					<trkpt lat="48.967660" lon="2.303470">
						<ele>39</ele>
						<time>2024-05-30T14:23:40Z</time>
					</trkpt>
					<trkpt lat="48.967130" lon="2.302730">
						<ele>38</ele>
						<time>2024-05-30T14:23:53Z</time>
					</trkpt>
					<trkpt lat="48.966440" lon="2.301500">
						<ele>41</ele>
						<time>2024-05-30T14:24:12Z</time>
					</trkpt>
					<trkpt lat="48.966110" lon="2.300860">
						<ele>42</ele>
						<time>2024-05-30T14:24:21Z</time>
					</trkpt>
					<trkpt lat="48.965930" lon="2.300670">
						<ele>43</ele>
						<time>2024-05-30T14:24:25Z</time>
					</trkpt>
					<trkpt lat="48.965840" lon="2.300570">
						<ele>43</ele>
						<time>2024-05-30T14:24:27Z</time>
					</trkpt>
					<trkpt lat="48.965690" lon="2.300600">
						<ele>44</ele>
						<time>2024-05-30T14:24:30Z</time>
					</trkpt>
					<trkpt lat="48.965360" lon="2.301360">
						<ele>45</ele>
						<time>2024-05-30T14:24:41Z</time>
					</trkpt>
					<trkpt lat="48.964950" lon="2.301920">
						<ele>45</ele>
						<time>2024-05-30T14:24:50Z</time>
					</trkpt>
					<trkpt lat="48.964390" lon="2.302620">
						<ele>44</ele>
						<time>2024-05-30T14:25:03Z</time>
					</trkpt>
					<trkpt lat="48.963870" lon="2.303300">
						<ele>42</ele>
						<time>2024-05-30T14:25:15Z</time>
					</trkpt>
					<trkpt lat="48.960570" lon="2.306830">
						<ele>40</ele>
						<time>2024-05-30T14:26:27Z</time>
					</trkpt>
					<trkpt lat="48.958990" lon="2.308380">
						<ele>35</ele>
						<time>2024-05-30T14:27:01Z</time>
					</trkpt>
					<trkpt lat="48.958680" lon="2.308630">
						<ele>35</ele>
						<time>2024-05-30T14:27:07Z</time>
					</trkpt>
					<trkpt lat="48.958560" lon="2.308650">
						<ele>35</ele>
						<time>2024-05-30T14:27:09Z</time>
					</trkpt>
					<trkpt lat="48.958440" lon="2.308550">
						<ele>35</ele>
						<time>2024-05-30T14:27:12Z</time>
					</trkpt>
					<trkpt lat="48.958330" lon="2.308550">
						<ele>35</ele>
						<time>2024-05-30T14:27:13Z</time>
					</trkpt>
					<trkpt lat="48.958180" lon="2.308970">
						<ele>35</ele>
						<time>2024-05-30T14:27:19Z</time>
					</trkpt>
					<trkpt lat="48.958090" lon="2.309130">
						<ele>35</ele>
						<time>2024-05-30T14:27:22Z</time>
					</trkpt>
					<trkpt lat="48.957500" lon="2.309740">
						<ele>37</ele>
						<time>2024-05-30T14:27:34Z</time>
					</trkpt>
					<trkpt lat="48.957390" lon="2.309870">
						<ele>37</ele>
						<time>2024-05-30T14:27:37Z</time>
					</trkpt>
					<trkpt lat="48.957300" lon="2.309920">
						<ele>38</ele>
						<time>2024-05-30T14:27:38Z</time>
					</trkpt>
					<trkpt lat="48.957160" lon="2.310050">
						<ele>38</ele>
						<time>2024-05-30T14:27:41Z</time>
					</trkpt>
					<trkpt lat="48.957110" lon="2.309930">
						<ele>39</ele>
						<time>2024-05-30T14:27:43Z</time>
					</trkpt>
					<trkpt lat="48.957150" lon="2.309890">
						<ele>39</ele>
						<time>2024-05-30T14:27:44Z</time>
					</trkpt>
					<trkpt lat="48.957170" lon="2.309830">
						<ele>38</ele>
						<time>2024-05-30T14:27:45Z</time>
					</trkpt>
					<trkpt lat="48.957060" lon="2.309600">
						<ele>39</ele>
						<time>2024-05-30T14:27:48Z</time>
					</trkpt>
					<trkpt lat="48.956840" lon="2.309300">
						<ele>39</ele>
						<time>2024-05-30T14:27:53Z</time>
					</trkpt>
					<trkpt lat="48.956450" lon="2.308930">
						<ele>40</ele>
						<time>2024-05-30T14:28:01Z</time>
					</trkpt>
					<trkpt lat="48.956410" lon="2.308860">
						<ele>40</ele>
						<time>2024-05-30T14:28:02Z</time>
					</trkpt>
					<trkpt lat="48.956240" lon="2.308720">
						<ele>40</ele>
						<time>2024-05-30T14:28:06Z</time>
					</trkpt>
					<trkpt lat="48.955690" lon="2.308400">
						<ele>41</ele>
						<time>2024-05-30T14:28:16Z</time>
					</trkpt>
					<trkpt lat="48.955540" lon="2.308340">
						<ele>41</ele>
						<time>2024-05-30T14:28:19Z</time>
					</trkpt>
					<trkpt lat="48.954870" lon="2.308120">
						<ele>42</ele>
						<time>2024-05-30T14:28:31Z</time>
					</trkpt>
					<trkpt lat="48.954890" lon="2.307900">
						<ele>42</ele>
						<time>2024-05-30T14:28:34Z</time>
					</trkpt>
					<trkpt lat="48.954750" lon="2.307850">
						<ele>42</ele>
						<time>2024-05-30T14:28:36Z</time>
					</trkpt>
					<trkpt lat="48.954620" lon="2.307870">
						<ele>42</ele>
						<time>2024-05-30T14:28:39Z</time>
					</trkpt>
					<trkpt lat="48.952030" lon="2.307160">
						<ele>33</ele>
						<time>2024-05-30T14:29:26Z</time>
					</trkpt>
					<trkpt lat="48.951820" lon="2.307100">
						<ele>31</ele>
						<time>2024-05-30T14:29:29Z</time>
					</trkpt>
					<trkpt lat="48.951710" lon="2.307120">
						<ele>30</ele>
						<time>2024-05-30T14:29:31Z</time>
					</trkpt>
					<trkpt lat="48.951070" lon="2.306940">
						<ele>31</ele>
						<time>2024-05-30T14:29:43Z</time>
					</trkpt>
					<trkpt lat="48.951000" lon="2.306860">
						<ele>31</ele>
						<time>2024-05-30T14:29:45Z</time>
					</trkpt>
					<trkpt lat="48.950700" lon="2.306760">
						<ele>32</ele>
						<time>2024-05-30T14:29:50Z</time>
					</trkpt>
					<trkpt lat="48.950500" lon="2.306710">
						<ele>31</ele>
						<time>2024-05-30T14:29:54Z</time>
					</trkpt>
					<trkpt lat="48.950490" lon="2.306840">
						<ele>31</ele>
						<time>2024-05-30T14:29:55Z</time>
					</trkpt>
					<trkpt lat="48.950500" lon="2.307610">
						<ele>31</ele>
						<time>2024-05-30T14:30:04Z</time>
					</trkpt>
					<trkpt lat="48.950480" lon="2.308190">
						<ele>31</ele>
						<time>2024-05-30T14:30:11Z</time>
					</trkpt>
					<trkpt lat="48.950440" lon="2.308570">
						<ele>31</ele>
						<time>2024-05-30T14:30:15Z</time>
					</trkpt>
					<trkpt lat="48.949940" lon="2.312060">
						<ele>31</ele>
						<time>2024-05-30T14:30:57Z</time>
					</trkpt>
					<trkpt lat="48.949910" lon="2.312160">
						<ele>31</ele>
						<time>2024-05-30T14:30:58Z</time>
					</trkpt>
					<trkpt lat="48.949700" lon="2.312510">
						<ele>30</ele>
						<time>2024-05-30T14:31:04Z</time>
					</trkpt>
					<trkpt lat="48.949680" lon="2.312580">
						<ele>30</ele>
						<time>2024-05-30T14:31:05Z</time>
					</trkpt>
					<trkpt lat="48.949550" lon="2.313300">
						<ele>31</ele>
						<time>2024-05-30T14:31:14Z</time>
					</trkpt>
					<trkpt lat="48.949550" lon="2.313420">
						<ele>31</ele>
						<time>2024-05-30T14:31:15Z</time>
					</trkpt>
					<trkpt lat="48.949610" lon="2.313720">
						<ele>32</ele>
						<time>2024-05-30T14:31:19Z</time>
					</trkpt>
					<trkpt lat="48.949630" lon="2.313860">
						<ele>32</ele>
						<time>2024-05-30T14:31:20Z</time>
					</trkpt>
					<trkpt lat="48.948570" lon="2.319060">
						<ele>37</ele>
						<time>2024-05-30T14:32:24Z</time>
					</trkpt>
					<trkpt lat="48.947350" lon="2.324490">
						<ele>31</ele>
						<time>2024-05-30T14:33:31Z</time>
					</trkpt>
					<trkpt lat="48.946670" lon="2.327070">
						<ele>31</ele>
						<time>2024-05-30T14:34:03Z</time>
					</trkpt>
					<trkpt lat="48.945730" lon="2.330730">
						<ele>29</ele>
						<time>2024-05-30T14:34:49Z</time>
					</trkpt>
					<trkpt lat="48.945050" lon="2.333090">
						<ele>27</ele>
						<time>2024-05-30T14:35:20Z</time>
					</trkpt>
					<trkpt lat="48.944570" lon="2.334260">
						<ele>27</ele>
						<time>2024-05-30T14:35:36Z</time>
					</trkpt>
					<trkpt lat="48.944200" lon="2.334940">
						<ele>27</ele>
						<time>2024-05-30T14:35:46Z</time>
					</trkpt>
					<trkpt lat="48.943710" lon="2.335780">
						<ele>29</ele>
						<time>2024-05-30T14:35:59Z</time>
					</trkpt>
					<trkpt lat="48.943310" lon="2.336370">
						<ele>29</ele>
						<time>2024-05-30T14:36:09Z</time>
					</trkpt>
					<trkpt lat="48.942710" lon="2.337120">
						<ele>28</ele>
						<time>2024-05-30T14:36:23Z</time>
					</trkpt>
					<trkpt lat="48.942380" lon="2.337470">
						<ele>28</ele>
						<time>2024-05-30T14:36:30Z</time>
					</trkpt>
					<trkpt lat="48.941930" lon="2.337820">
						<ele>29</ele>
						<time>2024-05-30T14:36:39Z</time>
					</trkpt>
					<trkpt lat="48.940540" lon="2.338850">
						<ele>26</ele>
						<time>2024-05-30T14:37:06Z</time>
					</trkpt>
					<trkpt lat="48.939190" lon="2.339670">
						<ele>27</ele>
						<time>2024-05-30T14:37:32Z</time>
					</trkpt>
					<trkpt lat="48.938460" lon="2.339990">
						<ele>26</ele>
						<time>2024-05-30T14:37:46Z</time>
					</trkpt>
					<trkpt lat="48.935910" lon="2.340860">
						<ele>28</ele>
						<time>2024-05-30T14:38:32Z</time>
					</trkpt>
					<trkpt lat="48.935850" lon="2.340840">
						<ele>28</ele>
						<time>2024-05-30T14:38:33Z</time>
					</trkpt>
					<trkpt lat="48.935840" lon="2.340780">
						<ele>28</ele>
						<time>2024-05-30T14:38:34Z</time>
					</trkpt>
					<trkpt lat="48.935810" lon="2.340750">
						<ele>28</ele>
						<time>2024-05-30T14:38:35Z</time>
					</trkpt>
					<trkpt lat="48.935780" lon="2.340760">
						<ele>28</ele>
						<time>2024-05-30T14:38:35Z</time>
					</trkpt>
					<trkpt lat="48.935750" lon="2.340790">
						<ele>28</ele>
						<time>2024-05-30T14:38:36Z</time>
					</trkpt>
					<trkpt lat="48.935740" lon="2.340840">
						<ele>28</ele>
						<time>2024-05-30T14:38:37Z</time>
					</trkpt>
					<trkpt lat="48.935440" lon="2.340930">
						<ele>28</ele>
						<time>2024-05-30T14:38:42Z</time>
					</trkpt>
					<trkpt lat="48.935050" lon="2.341010">
						<ele>28</ele>
						<time>2024-05-30T14:38:49Z</time>
					</trkpt>
					<trkpt lat="48.934900" lon="2.341010">
						<ele>29</ele>
						<time>2024-05-30T14:38:52Z</time>
					</trkpt>
					<trkpt lat="48.934290" lon="2.340940">
						<ele>28</ele>
						<time>2024-05-30T14:39:03Z</time>
					</trkpt>
					<trkpt lat="48.933240" lon="2.340790">
						<ele>29</ele>
						<time>2024-05-30T14:39:21Z</time>
					</trkpt>
					<trkpt lat="48.932060" lon="2.340270">
						<ele>28</ele>
						<time>2024-05-30T14:39:43Z</time>
					</trkpt>
					<trkpt lat="48.931990" lon="2.340140">
						<ele>28</ele>
						<time>2024-05-30T14:39:45Z</time>
					</trkpt>
					<trkpt lat="48.931810" lon="2.340030">
						<ele>27</ele>
						<time>2024-05-30T14:39:49Z</time>
					</trkpt>
					<trkpt lat="48.931590" lon="2.339950">
						<ele>27</ele>
						<time>2024-05-30T14:39:53Z</time>
					</trkpt>
					<trkpt lat="48.931540" lon="2.339880">
						<ele>27</ele>
						<time>2024-05-30T14:39:54Z</time>
					</trkpt>
					<trkpt lat="48.931170" lon="2.339680">
						<ele>28</ele>
						<time>2024-05-30T14:40:01Z</time>
					</trkpt>
					<trkpt lat="48.930520" lon="2.339170">
						<ele>29</ele>
						<time>2024-05-30T14:40:14Z</time>
					</trkpt>
					<trkpt lat="48.929440" lon="2.338120">
						<ele>28</ele>
						<time>2024-05-30T14:40:37Z</time>
					</trkpt>
					<trkpt lat="48.927460" lon="2.336140">
						<ele>28</ele>
						<time>2024-05-30T14:41:19Z</time>
					</trkpt>
					<trkpt lat="48.925930" lon="2.334740">
						<ele>31</ele>
						<time>2024-05-30T14:41:51Z</time>
					</trkpt>
					<trkpt lat="48.925600" lon="2.334470">
						<ele>31</ele>
						<time>2024-05-30T14:41:57Z</time>
					</trkpt>
					<trkpt lat="48.923830" lon="2.332790">
						<ele>34</ele>
						<time>2024-05-30T14:42:34Z</time>
					</trkpt>
					<trkpt lat="48.923750" lon="2.332600">
						<ele>34</ele>
						<time>2024-05-30T14:42:37Z</time>
					</trkpt>
					<trkpt lat="48.923630" lon="2.332480">
						<ele>34</ele>
						<time>2024-05-30T14:42:40Z</time>
					</trkpt>
					<trkpt lat="48.923520" lon="2.332410">
						<ele>34</ele>
						<time>2024-05-30T14:42:42Z</time>
					</trkpt>
					<trkpt lat="48.922940" lon="2.331850">
						<ele>34</ele>
						<time>2024-05-30T14:42:54Z</time>
					</trkpt>
					<trkpt lat="48.922830" lon="2.331810">
						<ele>34</ele>
						<time>2024-05-30T14:42:56Z</time>
					</trkpt>
					<trkpt lat="48.921580" lon="2.330620">
						<ele>32</ele>
						<time>2024-05-30T14:43:22Z</time>
					</trkpt>
					<trkpt lat="48.921500" lon="2.330670">
						<ele>32</ele>
						<time>2024-05-30T14:43:24Z</time>
					</trkpt>
					<trkpt lat="48.920570" lon="2.329810">
						<ele>32</ele>
						<time>2024-05-30T14:43:43Z</time>
					</trkpt>
					<trkpt lat="48.920250" lon="2.329550">
						<ele>33</ele>
						<time>2024-05-30T14:43:50Z</time>
					</trkpt>
					<trkpt lat="48.920010" lon="2.329290">
						<ele>34</ele>
						<time>2024-05-30T14:43:55Z</time>
					</trkpt>
					<trkpt lat="48.919910" lon="2.329160">
						<ele>33</ele>
						<time>2024-05-30T14:43:57Z</time>
					</trkpt>
					<trkpt lat="48.919170" lon="2.328020">
						<ele>32</ele>
						<time>2024-05-30T14:44:16Z</time>
					</trkpt>
					<trkpt lat="48.918240" lon="2.329410">
						<ele>33</ele>
						<time>2024-05-30T14:44:39Z</time>
					</trkpt>
					<trkpt lat="48.918210" lon="2.329450">
						<ele>33</ele>
						<time>2024-05-30T14:44:40Z</time>
					</trkpt>
					<trkpt lat="48.918030" lon="2.329470">
						<ele>35</ele>
						<time>2024-05-30T14:44:43Z</time>
					</trkpt>
					<trkpt lat="48.917920" lon="2.329540">
						<ele>36</ele>
						<time>2024-05-30T14:44:45Z</time>
					</trkpt>
					<trkpt lat="48.917820" lon="2.329610">
						<ele>36</ele>
						<time>2024-05-30T14:44:47Z</time>
					</trkpt>
					<trkpt lat="48.917760" lon="2.329680">
						<ele>37</ele>
						<time>2024-05-30T14:44:48Z</time>
					</trkpt>
					<trkpt lat="48.916730" lon="2.330170">
						<ele>38</ele>
						<time>2024-05-30T14:45:08Z</time>
					</trkpt>
					<trkpt lat="48.916380" lon="2.330350">
						<ele>39</ele>
						<time>2024-05-30T14:45:14Z</time>
					</trkpt>
					<trkpt lat="48.915310" lon="2.331330">
						<ele>38</ele>
						<time>2024-05-30T14:45:36Z</time>
					</trkpt>
					<trkpt lat="48.915110" lon="2.330880">
						<ele>35</ele>
						<time>2024-05-30T14:45:43Z</time>
					</trkpt>
					<trkpt lat="48.913430" lon="2.327320">
						<ele>32</ele>
						<time>2024-05-30T14:46:34Z</time>
					</trkpt>
					</trkseg>
				</trk>
			</gpx>